[{"header": {"dx": 0.06612293990616946, "dy": 0.0552356325346848, "nx": 98, "ny": 59, "la1": 35.046912555036876, "la2": 31.78801023549047, "lo1": -121.43107172385933, "lo2": -114.95102361305473, "refTime": "2026041718", "parameterCategory": 1, "parameterNumber": 2}, "data": [1.16, 1.16, 1.16, 1.16, 1.61, 1.84, 2.23, 2.84, 4.0, 4.17, 4.8, 4.9, 5.73, 2.53, -0.0, -0.0, 1.05, 1.05, 1.98, 3.72, 3.47, 4.11, 2.21, -2.68, -4.02, -4.92, -4.98, -5.6, -5.6, -4.89, -4.54, -3.48, -2.0, -1.08, 0.0, 0.0, 0.88, 1.99, 2.76, 2.95, 0.0, -5.7, -7.45, -8.05, -9.39, -8.05, -8.05, -8.0, -7.42, -7.37, -6.57, -6.57, -6.0, -6.0, -5.6, -4.89, -4.98, -4.29, -3.93, -3.72, -3.35, -2.23, -2.0, -1.99, -3.0, -2.82, -2.67, -2.83, -2.69, -2.69, -2.69, -1.75, -1.75, -0.84, -0.84, -0.89, 0.0, 0.0, 0.0, 0.89, 1.69, 3.51, 4.4, 5.21, 6.01, 5.82, 6.16, 6.64, 6.45, 5.6, 3.22, 1.08, 0.0, 0.0, -0.95, -1.95, -2.57, -2.49, 0.61, 0.61, 1.16, 1.33, 1.33, 1.84, 2.23, 2.84, 3.43, 4.0, 4.27, 5.6, 4.82, 2.21, -0.0, 1.7, 2.2, 1.98, 1.98, 2.76, 5.06, 4.74, 5.58, 3.16, -2.68, -4.34, -4.4, -4.98, -4.89, -5.58, -4.89, -4.54, -2.76, -1.99, -1.72, -2.8, -2.76, -2.0, -1.13, -4.02, -6.36, -8.06, -8.48, -8.0, -8.49, -8.05, -7.6, -7.54, -6.94, -6.88, -6.16, -6.16, -6.16, -5.2, -4.8, -4.98, -4.6, -4.8, -4.0, -3.82, -3.82, -2.53, -2.0, -1.99, -2.8, -2.82, -2.82, -2.67, -2.83, -3.6, -2.54, -1.95, -1.84, -0.89, -0.94, 0.0, 0.0, 0.0, 0.0, 0.89, 1.69, 3.51, 4.4, 5.21, 6.01, 5.82, 6.16, 6.64, 6.45, 5.6, 3.22, 1.08, 0.0, 0.0, -0.95, -1.95, -2.57, -2.49, 0.61, 0.61, 1.13, 1.13, 1.13, 1.6, 2.23, 2.84, 3.43, 3.64, 4.27, 3.87, 4.92, 2.53, 2.21, 2.23, 2.95, 1.99, 2.16, 3.0, 3.63, 5.06, 5.06, 5.06, 3.48, -2.8, -3.93, -3.79, -3.91, -4.74, -4.74, -3.91, -2.8, -2.82, -4.29, -8.38, -7.6, -7.55, -7.63, -8.3, -8.55, -8.63, -8.77, -8.44, -8.05, -8.05, -7.54, -7.1, -6.45, -6.45, -6.36, -5.94, -5.94, -4.98, -4.6, -4.6, -4.6, -4.98, -4.4, -4.0, -3.72, -2.23, -2.2, -2.16, -3.0, -2.82, -3.55, -3.77, -3.77, -3.77, -2.67, -1.73, -0.89, -0.89, 0.0, 0.0, 0.0, 0.0, 0.0, 0.82, 1.69, 2.49, 4.25, 5.06, 4.71, 5.06, 5.43, 6.88, 6.94, 6.57, 4.98, 2.84, 2.21, 0.0, -1.84, -2.67, -2.69, -2.59, 0.61, 0.59, 1.13, 1.13, 1.13, 1.6, 2.23, 2.58, 2.84, 3.09, 3.35, 3.7, 5.36, 3.93, 3.48, 3.48, 3.22, 2.6, 1.99, 2.99, 3.63, 4.74, 4.74, 4.89, 4.89, 4.02, -1.27, -1.83, -0.96, -2.48, -2.53, -2.53, 0.0, 0.0, -5.36, -7.06, -7.89, -8.4, -7.82, -8.72, -9.06, -8.77, -8.45, -8.05, -8.05, -8.0, -7.54, -6.94, -6.45, -6.45, -5.75, -5.6, -5.6, -4.54, -4.54, -4.98, -4.98, -4.98, -4.98, -4.8, -3.48, -2.2, -1.83, -2.8, -3.72, -3.55, -3.77, -4.16, -4.16, -3.79, -2.82, -1.96, -0.95, 0.0, 0.0, 0.0, 0.0, 0.0, 0.0, 0.85, 1.45, 2.6, 3.25, 4.4, 3.63, 4.42, 4.58, 5.49, 6.6, 6.6, 5.37, 4.24, 2.68, -1.6, -2.99, -3.55, -3.45, -3.49, 0.59, 0.59, 1.13, 1.13, 1.13, 1.8, 2.23, 2.23, 2.51, 2.79, 3.07, 3.39, 4.92, 4.8, 4.29, 3.79, 2.76, 2.99, 1.99, 1.99, 3.72, 3.2, 3.72, 5.06, 3.63, 4.43, 4.02, 3.58, 3.13, -0.0, -0.0, -0.0, -0.0, -0.0, -3.47, -5.95, -7.47, -8.48, -7.85, -8.9, -8.94, -8.94, -8.49, -8.49, -8.0, -8.0, -7.37, -6.94, -6.57, -6.16, -5.58, -5.58, -4.89, -4.43, -4.89, -4.54, -4.98, -5.6, -5.6, -4.98, -3.79, -2.95, -1.99, -2.8, -3.97, -3.77, -4.42, -4.26, -4.5, -3.8, -2.83, -1.84, 0.0, 0.0, 0.89, 0.79, 0.94, 0.0, 0.0, 0.75, 1.45, 2.41, 2.6, 2.59, 2.57, 2.69, 3.6, 4.68, 4.87, 5.06, 4.89, 3.82, 2.24, -3.2, -2.99, -3.55, -3.45, -3.49, 1.13, 1.13, 1.27, 1.11, 1.27, 1.8, 1.8, 1.8, 1.84, 1.61, 1.9, 2.63, 4.47, 5.26, 4.29, 2.99, 2.8, 2.32, 1.99, 1.83, 2.4, 2.99, 3.4, 3.4, 3.2, 1.52, 1.98, -0.0, -0.0, -0.0, -0.0, -0.96, -1.99, -4.11, -5.2, -6.02, -7.1, -7.15, -7.15, -7.55, -7.85, -9.46, -8.77, -8.77, -8.29, -7.85, -7.12, -7.12, -6.21, -6.21, -5.49, -4.74, -4.74, -4.89, -4.89, -5.37, -5.6, -6.0, -5.58, -4.89, -3.79, -3.22, -2.99, -3.72, -4.42, -4.68, -4.68, -4.5, -4.2, -3.65, -2.47, -1.75, -0.94, 0.0, 0.89, 1.84, 1.84, 0.89, 0.0, 0.85, 1.76, 2.51, 2.41, 2.49, 2.59, 2.47, 2.57, 2.83, 2.82, 2.8, 3.22, 2.8, 2.24, -2.84, -3.22, -3.77, -3.45, -3.49, 1.11, 1.11, 1.11, 1.11, 1.11, 1.8, 1.6, 1.33, 1.0, 1.24, 1.26, 2.24, 4.82, 4.57, 4.84, 2.16, 1.98, 1.98, 0.96, 1.66, 2.0, 1.99, 2.99, 3.0, 3.2, 1.63, -0.0, -0.0, 1.73, -0.0, -0.0, -0.96, -2.95, -4.98, -5.59, -6.2, -6.71, -7.89, -7.45, -5.73, -7.45, -8.06, -9.04, -9.45, -9.45, -8.17, -7.76, -6.6, -5.49, -6.08, -5.37, -4.74, -4.89, -4.98, -5.4, -5.51, -5.6, -6.0, -6.21, -5.58, -4.11, -2.76, -3.22, -3.97, -4.42, -4.26, -3.6, -3.45, -2.7, -2.59, -2.49, -1.69, -0.79, 0.0, 0.89, 0.85, 1.75, 0.89, 0.89, 1.63, 2.51, 3.42, 2.51, 1.63, 1.63, 2.21, 2.57, 0.95, 0.0, 1.6, 2.4, 2.24, 1.79, -2.23, -2.8, -3.77, -4.34, -3.49, 1.11, 1.11, 1.23, 1.23, 1.11, 1.27, 1.13, 0.61, 0.65, 0.0, 1.26, 2.24, 4.0, 3.49, 1.52, -0.0, -0.0, 0.89, 0.96, 1.05, 1.08, 0.98, 0.96, 2.16, 2.8, 1.63, -0.0, 1.63, -0.0, -0.0, -0.0, -0.0, -1.98, -5.58, -5.59, -6.2, -6.26, -6.64, -7.01, -6.26, -6.26, -7.01, -8.06, -8.18, -8.55, -9.09, -8.18, -6.79, -5.49, -6.08, -5.58, -6.0, -5.94, -5.51, -5.73, -5.73, -6.17, -6.45, -6.16, -5.58, -3.91, -2.99, -3.91, -3.72, -4.58, -4.68, -3.6, -2.54, -1.84, -1.75, -1.75, -0.89, -0.85, 0.0, 0.0, 0.0, 0.0, 0.85, 1.69, 2.51, 2.95, 3.76, 3.16, 2.31, 2.15, 2.21, 2.31, 1.41, -0.0, 2.23, 2.84, 2.97, 2.68, -1.08, -3.0, -3.6, -4.34, -3.65, 1.57, 1.76, 1.76, 1.23, 1.11, 1.13, 0.61, 0.0, 0.0, 0.0, 0.8, 1.6, 2.2, 1.03, -0.0, -0.0, -0.95, -0.0, -0.0, -0.0, -0.0, -0.0, -0.0, -0.0, 0.96, -0.0, -0.0, -0.0, -1.73, -3.4, -2.99, -0.0, -1.63, -5.21, -6.2, -6.64, -7.45, -7.6, -7.6, -7.15, -6.71, -7.01, -7.47, -7.67, -8.18, -7.81, -8.73, -7.9, -6.79, -6.21, -6.52, -6.16, -6.45, -6.64, -6.2, -6.2, -6.64, -6.02, -6.0, -5.24, -3.91, -3.91, -3.91, -4.19, -3.72, -3.55, -3.77, -1.96, -1.84, -1.84, -0.89, -0.79, 0.0, -0.76, 0.0, 0.0, 0.0, 0.82, 1.7, 1.52, 1.63, 3.85, 3.69, 3.78, 2.97, 3.21, 3.2, 3.58, 0.88, 2.4, 3.79, 3.9, 2.98, 0.0, -1.96, -3.6, -3.49, -3.51, 1.73, 1.73, 1.76, 1.23, 1.11, 0.59, 0.0, 0.0, 0.0, 0.0, 0.71, 1.26, 0.95, 0.65, -0.0, -1.98, -1.98, -2.16, -1.52, -0.0, -0.0, -0.0, -0.0, -0.0, -0.0, -0.0, -0.0, -1.4, -2.99, -5.59, -4.6, -2.83, -2.99, -5.58, -7.6, -8.05, -8.38, -6.65, -8.05, -8.05, -6.71, -6.94, -6.57, -6.6, -7.2, -7.42, -7.82, -8.43, -8.43, -7.82, -7.2, -7.53, -7.37, -7.37, -7.37, -7.1, -7.08, -6.02, -5.6, -4.89, -3.91, -3.91, -4.56, -3.72, -3.72, -3.97, -3.72, -2.76, -0.88, -1.19, -1.05, -0.88, -0.88, -0.78, 0.0, 0.0, 0.89, 1.69, 1.45, 0.71, 1.52, 2.25, 4.6, 4.96, 4.5, 4.71, 4.74, 4.02, 2.84, 3.16, 4.22, 4.47, 4.29, 1.05, -1.84, -3.6, -3.49, -3.51, 2.18, 1.73, 1.76, 1.11, 1.13, 0.59, 0.0, 0.0, 0.0, 0.0, 0.54, 1.26, 1.34, 0.4, -1.19, -2.95, -2.48, -0.63, -0.0, -0.0, -0.0, -0.96, -0.0, -0.0, -1.52, -1.84, -1.84, -1.52, -1.49, -4.6, -6.95, -6.48, -5.63, -7.2, -7.85, -9.39, -8.94, -8.94, -8.0, -7.85, -7.37, -6.7, -6.57, -6.52, -7.6, -7.42, -8.4, -8.8, -8.43, -8.05, -8.4, -8.21, -7.82, -8.17, -8.3, -8.33, -7.37, -6.45, -5.37, -4.43, -3.72, -3.72, -3.72, -3.55, -4.58, -5.24, -4.54, -3.48, -2.23, -1.6, -1.13, -1.13, 0.0, -0.88, 0.0, 0.8, 2.23, 2.7, 1.76, 0.82, 0.71, 1.48, 2.95, 5.18, 5.86, 6.32, 6.44, 5.75, 4.47, 4.38, 4.85, 5.81, 4.98, 2.2, -1.03, -2.83, -3.49, -3.51, 2.32, 1.7, 1.57, 1.11, 1.13, 0.59, 0.0, 0.0, 0.0, 0.0, 0.54, 0.57, 0.63, -0.0, -0.4, -0.8, -0.89, 0.45, 0.0, 0.0, -0.0, -0.0, -0.0, -0.0, -1.7, -1.55, -0.0, -0.0, 1.08, -0.0, -5.86, -8.12, -8.12, -9.03, -9.49, -9.79, -8.94, -8.45, -8.77, -8.06, -7.2, -6.8, -6.21, -6.52, -6.9, -6.6, -8.4, -8.18, -8.18, -8.73, -8.42, -8.42, -8.42, -8.43, -8.8, -9.06, -8.29, -6.45, -4.98, -3.91, -3.97, -3.55, -3.77, -3.77, -5.69, -6.55, -5.49, -4.89, -3.22, -2.48, -1.4, 0.0, 0.0, 0.0, 0.0, 0.94, 2.57, 2.83, 2.44, 1.6, 0.85, 0.86, 2.44, 5.0, 5.78, 7.02, 7.67, 7.21, 6.21, 5.36, 5.36, 6.26, 6.26, 5.26, 0.0, -2.99, -2.83, -2.59, 2.29, 2.36, 1.73, 1.76, 1.11, 0.59, 0.0, 0.0, 0.0, 0.0, 0.0, 0.54, 0.0, 0.0, -0.45, -0.45, -0.45, 0.0, 0.0, 0.0, 0.0, 0.0, -0.0, -0.0, -0.0, -0.0, 0.63, 1.7, 2.15, 2.51, -0.0, -6.82, -9.24, -9.24, -9.24, -8.9, -8.05, -8.0, -7.42, -7.12, -6.57, -6.16, -5.6, -4.4, -4.92, -4.47, -4.92, -5.51, -6.4, -7.67, -7.07, -7.42, -6.8, -5.75, -7.01, -7.45, -8.06, -7.47, -3.79, -3.0, -3.77, -3.6, -3.6, -3.6, -5.36, -6.95, -6.32, -5.69, -4.74, -2.99, -2.2, 0.0, 1.08, 2.16, 1.73, 1.84, 2.57, 2.69, 2.31, 2.31, 1.52, 1.69, 2.25, 2.51, 5.14, 6.83, 7.35, 7.28, 6.94, 6.51, 6.07, 6.21, 6.71, 7.15, 3.72, -1.98, -2.69, -2.47, 2.96, 2.32, 1.7, 1.57, 1.11, 0.59, 0.0, 0.0, 0.0, 0.0, 0.0, 0.0, 0.0, 0.0, 0.45, -0.45, 0.0, 0.0, 0.0, 0.0, 0.0, 0.45, 0.45, 0.0, 0.0, 0.0, -0.0, 0.57, 0.53, 0.57, 0.58, -1.84, -7.06, -7.37, -6.94, -7.1, -6.26, -6.26, -5.81, -5.36, -4.92, -4.47, -4.92, -2.84, -0.0, -0.0, 1.08, 2.4, -0.0, -0.0, -4.02, -3.16, -2.2, -0.0, -0.0, -0.0, -4.92, -6.01, -4.37, -1.96, -2.54, -3.87, -4.05, -4.05, -4.4, -6.04, -7.02, -5.69, -5.69, -2.8, -1.98, 0.0, 0.95, 1.84, 1.84, 1.75, 1.75, 1.67, 2.69, 2.54, 2.69, 2.7, 2.21, 2.21, 3.85, 5.14, 6.31, 7.06, 6.44, 6.4, 6.79, 6.79, 6.36, 7.1, 5.31, 1.19, -1.75, -1.84, 2.92, 2.8, 2.36, 1.73, 1.76, 1.11, 0.59, 0.0, 0.0, 0.0, 0.0, 0.0, 0.0, 0.0, 0.0, 0.0, 0.0, 0.0, 0.0, 0.0, 0.0, -0.63, -0.32, -0.45, -0.45, -0.63, -0.57, -1.27, -1.7, -1.65, -1.73, -0.56, -1.4, -5.21, -4.84, -5.51, -5.51, -4.34, -5.09, -4.34, -4.34, -4.4, -3.16, -2.0, -0.0, -0.0, 1.84, 1.52, 1.52, 3.0, 3.0, 1.63, -0.0, -0.0, 1.63, 4.29, 2.4, -4.6, -4.6, -2.7, -0.81, -2.7, -2.97, -2.82, -2.12, -2.4, -3.16, -4.11, -4.56, -3.6, -1.84, 0.0, 0.85, 1.68, 1.76, 0.89, 0.85, 1.75, 1.75, 2.54, 2.83, 3.27, 2.44, 3.06, 3.78, 4.44, 4.4, 4.34, 4.95, 6.18, 6.82, 6.64, 6.4, 6.28, 6.88, 0.0, -0.89, -0.89, 3.6, 2.77, 2.16, 2.4, 1.57, 1.11, 0.59, 0.59, 0.59, 0.0, 0.0, 0.0, 0.0, 0.0, 0.0, 0.0, 0.0, 0.0, 0.0, 0.0, -0.4, -0.63, -0.8, -1.34, -1.27, -1.58, -2.58, -3.22, -3.42, -3.4, -3.37, -2.89, -1.14, -1.63, -1.63, -1.8, -3.82, -4.34, -5.09, -5.09, -4.0, -3.35, -4.0, -2.0, -2.0, -0.0, -0.0, -0.0, -0.0, -0.0, 1.41, 1.52, 1.63, 1.52, 1.84, 3.47, 3.47, -0.0, -4.0, -3.68, -1.76, -2.82, -4.0, -1.8, -0.0, 1.98, 3.79, 5.21, 2.2, -1.63, -1.19, 0.0, 0.89, 0.82, 0.0, 0.0, 0.0, 0.0, 0.84, 1.84, 2.67, 3.4, 3.45, 3.32, 3.49, 4.34, 3.45, 2.83, 2.67, 4.42, 5.69, 5.43, 5.46, 6.4, 5.21, 1.63, 0.0, 0.0, 3.37, 3.2, 2.8, 2.36, 1.73, 1.76, 1.11, 1.11, 0.59, 0.59, 0.0, 0.0, 0.0, 0.0, 0.0, 0.0, 0.0, 0.0, 0.0, 0.0, -0.6, -0.95, -1.7, -2.24, -2.63, -2.79, -3.16, -3.79, -4.12, -4.21, -4.47, -4.46, -3.4, -3.7, -2.4, -1.72, -2.95, -3.79, -4.84, -3.79, -3.79, -2.23, -3.48, -2.84, -2.2, -0.0, -0.0, -0.0, -0.0, -0.0, -0.0, 1.7, 1.84, 3.22, 4.11, 3.79, 4.84, 4.11, -2.2, -4.8, -2.58, -4.0, -1.7, -0.0, -0.0, -0.0, 3.72, 5.06, 5.81, 4.02, -4.8, -3.16, -1.9, -0.82, -1.64, -1.7, -1.62, 0.0, 0.0, 0.84, 2.54, 3.45, 4.56, 3.88, 4.4, 4.34, 4.42, 1.96, 2.51, 4.68, 4.95, 4.65, 4.65, 5.06, 5.37, 2.35, 0.0, 0.0, 4.03, 3.4, 2.77, 2.8, 2.18, 1.73, 1.76, 1.11, 1.11, 0.57, 0.51, 0.51, 0.59, 0.0, 0.0, 0.0, 0.0, 0.0, 0.0, 0.0, 0.0, 0.0, -0.95, -2.63, -3.53, -3.2, -3.35, -3.64, -4.71, -5.06, -5.06, -5.08, -5.38, -5.08, -4.08, -4.96, -4.26, -4.56, -4.74, -3.72, -3.0, -1.52, -1.84, -1.84, -0.0, -0.0, -0.0, -0.0, -0.0, -0.0, -0.0, -0.0, 2.2, 3.48, 3.48, 5.09, 5.51, 5.09, 0.0, -4.0, -3.0, -4.02, -2.2, -0.0, -0.0, -0.0, 2.48, 4.84, 4.84, 2.4, -1.63, -1.96, -1.03, -2.8, -3.32, -4.21, -3.42, -1.69, 0.0, 0.85, 2.7, 3.51, 4.13, 3.69, 4.4, 4.96, 5.53, 3.0, 2.82, 2.67, 2.67, 3.4, 3.79, 4.03, 4.42, 2.67, 0.77, 0.77, 4.0, 3.81, 3.42, 3.0, 2.36, 2.4, 1.73, 1.76, 1.23, 1.11, 0.57, 0.57, 0.57, 0.51, 0.0, 0.0, 0.0, 0.0, 0.0, 0.0, 0.0, 0.0, 0.0, -4.34, -6.2, -7.06, -3.35, -5.82, -6.55, -5.29, -5.29, -5.59, -5.59, -5.65, -5.65, -5.65, -5.06, -4.12, -4.29, -4.29, -2.16, -1.14, -0.0, -0.0, 1.52, -0.0, -0.0, -0.0, -0.0, -0.0, -0.0, -0.0, 2.0, 2.0, 4.4, 4.4, 5.36, 4.92, 0.0, -4.29, -4.4, -2.84, -0.0, -0.0, -0.0, 0.98, 1.27, 3.16, 3.93, 4.74, 3.97, 1.98, 1.03, -2.68, -3.29, -4.0, -4.13, -3.34, -0.83, 0.82, 3.42, 4.06, 3.32, 3.07, 3.39, 4.25, 5.21, 4.03, 2.82, 2.51, 1.95, 1.75, 2.54, 3.27, 3.8, 2.69, 1.75, 1.75, 4.0, 4.03, 3.4, 3.42, 2.8, 2.36, 2.4, 1.73, 1.57, 1.08, 0.57, 0.57, 0.57, 1.11, 0.61, 0.0, 0.0, 0.0, 0.0, -4.02, -4.47, -0.6, -0.57, -4.54, -6.57, -6.16, -6.57, -5.08, -5.08, -5.6, -5.37, -5.75, -5.75, -5.75, -5.75, -5.75, -5.21, -4.65, -4.0, -2.84, -1.84, -0.59, -0.0, 1.11, 2.86, 3.22, -0.0, -2.2, -0.0, -0.0, -0.0, -0.0, -0.0, 2.2, 2.48, 3.35, 4.92, 2.97, 0.0, -3.47, -4.47, -2.84, -0.0, -0.0, -0.0, 1.08, 2.0, 3.16, 3.93, 5.2, 6.57, 7.12, 6.0, 3.2, -1.67, -3.34, -4.13, -4.13, 0.0, 1.6, 3.32, 2.61, 2.51, 1.7, 2.6, 2.97, 3.8, 4.03, 3.33, 3.2, 2.67, 1.84, 1.84, 2.69, 3.15, 2.83, 1.75, 1.75, 4.66, 4.45, 4.05, 3.64, 3.45, 3.04, 2.82, 2.4, 1.73, 1.73, 1.08, 1.08, 1.08, 1.08, 1.13, 0.54, 0.0, 0.54, -0.0, -4.4, -5.51, -2.68, -2.79, -3.88, -4.6, -4.66, -5.09, -5.09, -5.31, -5.81, -5.81, -5.6, -5.6, -5.6, -5.47, -5.08, -4.8, -4.4, -3.88, -3.14, -2.53, -1.16, -0.59, -0.0, 1.57, 3.0, -0.0, -1.7, -1.84, -0.0, -0.0, -0.0, -0.0, 1.7, 3.22, 2.23, 3.13, 2.4, 0.0, -2.2, -3.58, 3.13, -0.0, -0.0, -0.0, 0.98, 2.0, 3.48, 3.93, 5.51, 7.1, 7.1, 5.51, 3.39, 0.0, -1.58, -3.07, -2.44, -0.86, 0.0, 0.86, 0.85, 0.0, 0.72, 1.76, 2.47, 3.32, 3.91, 3.91, 3.79, 3.77, 1.84, 0.89, 1.58, 3.15, 2.99, 1.52, 1.52, 4.66, 4.44, 4.03, 3.83, 3.42, 3.45, 3.04, 2.82, 2.18, 1.73, 1.19, 1.19, 1.19, 1.19, 1.11, 1.16, 0.53, 0.57, -0.0, -1.49, -2.68, -2.68, -3.53, -3.98, -4.44, -4.8, -5.24, -5.09, -5.57, -5.4, -5.4, -5.4, -5.4, -5.31, -5.31, -4.8, -4.4, -4.27, -3.88, -3.35, -2.84, -2.23, -1.27, -0.63, 0.54, 1.19, -0.0, -3.22, -1.52, -0.0, -0.0, -0.0, -0.0, 1.84, 3.22, 2.98, 2.68, 0.0, 0.0, 0.0, 1.79, 1.79, -0.0, -0.0, -0.0, 1.27, 2.23, 3.16, 3.93, 6.0, 6.94, 4.11, -1.19, -1.99, 0.0, -0.74, -1.65, -1.63, 0.0, 0.0, 0.0, -0.75, -0.82, 0.0, 0.89, 1.68, 2.7, 3.49, 3.7, 3.91, 4.03, 2.35, 0.0, 0.76, 2.31, 2.99, 2.57, 2.57, 5.06, 5.06, 4.66, 4.05, 3.83, 3.42, 3.45, 3.04, 2.82, 2.18, 1.7, 1.07, 1.07, 1.07, 1.08, 1.27, 0.61, 0.57, 0.0, -0.89, -2.24, -2.68, -3.58, -3.98, -4.44, -4.89, -5.24, -5.24, -5.57, -5.57, -5.31, -5.31, -5.31, -5.31, -4.8, -4.8, -4.27, -3.88, -3.72, -3.35, -2.84, -2.51, -1.8, -1.11, -0.0, -0.0, -1.52, -3.0, -1.32, -0.0, -0.0, -0.0, -0.0, -0.0, 1.52, 2.8, 2.53, 0.0, 0.0, 0.0, 1.9, 2.68, -0.0, -0.0, -0.0, 2.48, 2.48, 3.16, 4.0, 4.98, 5.21, 3.58, -4.74, -1.32, 0.0, 0.76, 0.0, 0.0, 0.0, 0.81, 0.0, -1.69, -1.63, -0.82, 0.0, 1.69, 2.49, 3.39, 3.51, 2.7, 3.91, 3.0, 0.83, 0.0, 1.58, 3.15, 3.15, 3.15, 5.06, 5.06, 5.32, 5.09, 4.05, 4.08, 3.42, 3.45, 2.8, 2.82, 1.84, 1.7, 1.7, 1.7, 1.07, 1.08, 0.59, 0.65, 0.0, -0.95, -2.17, -2.68, -3.58, -4.02, -4.44, -4.88, -5.24, -5.24, -5.51, -5.51, -5.31, -5.31, -5.31, -4.8, -4.8, -4.27, -4.27, -3.72, -3.35, -3.14, -2.79, -2.79, -2.23, -1.8, -1.76, -1.19, -1.4, -1.4, -1.4, -0.0, -0.0, -0.0, -0.0, -0.0, 1.32, 1.63, 1.99, 2.21, 0.0, 0.0, 0.0, 2.24, -0.0, -0.0, 1.08, 2.0, 2.2, 3.79, 4.0, 4.82, 5.73, -6.71, -6.18, -2.82, 1.26, 2.46, 3.47, 4.02, 2.84, 2.24, 0.81, -0.77, -2.15, -1.42, 0.0, 0.86, 1.7, 2.6, 2.59, 0.89, 2.54, 2.35, 0.82, 0.0, 1.58, 3.15, 2.9, 2.9, 5.29, 5.29, 5.06, 5.08, 4.69, 4.71, 4.08, 3.84, 3.45, 2.8, 2.32, 1.67, 1.67, 1.67, 1.16, 1.07, 0.57, 0.51, 0.0, -1.24, -2.17, -3.13, -3.58, -4.02, -4.44, -4.88, -4.8, -5.09, -5.09, -5.51, -5.31, -5.31, -4.9, -4.55, -4.55, -4.0, -3.64, -3.72, -3.14, -2.79, -2.21, -2.5, -2.79, -2.84, -2.48, -2.44, -1.76, -1.23, -1.23, -0.55, -0.0, -0.0, -0.0, -0.0, 1.4, -0.0, -0.0, 0.88, 2.2, 3.58, 3.58, -0.0, -0.0, -0.0, 1.08, 2.2, 3.22, 4.29, 4.4, 5.36, 4.82, -2.68, -6.98, -2.67, 0.89, 3.45, 5.06, 4.98, 5.36, 3.82, 2.21, 0.0, -1.54, -1.5, -0.82, 0.0, 0.82, 0.89, 0.89, 0.0, 0.0, 1.63, 1.52, 0.89, 1.49, 3.15, 2.9, 2.9, 5.7, 5.7, 5.7, 5.32, 5.08, 4.45, 4.46, 4.08, 3.84, 3.21, 3.0, 2.32, 1.8, 1.8, 1.14, 1.16, 0.54, 0.57, 0.0, -1.0, -2.4, -3.13, -3.58, -4.02, -4.44, -4.88, -4.8, -5.09, -5.09, -5.09, -4.9, -4.9, -4.55, -4.55, -4.55, -4.0, -3.78, -3.43, -2.84, -2.23, -1.88, -1.61, -2.5, -3.14, -3.43, -2.86, -2.22, -1.76, -1.23, -1.08, -1.07, -0.59, -0.0, -0.0, 1.32, -0.0, -0.0, -0.0, -0.0, 1.84, 2.4, 2.4, -0.0, -0.0, 1.19, 1.99, 3.22, 4.11, 4.82, 4.92, 4.92, 0.0, -5.49, -2.83, 0.0, 2.83, 5.21, 6.44, 6.0, 5.36, 4.02, 0.0, -1.58, -1.58, -0.76, 0.0, 0.0, 0.0, 0.0, 0.0, 0.0, 0.76, 1.55, 1.55, 1.58, 2.57, 3.06, 3.06, 5.69, 5.69, 5.7, 5.46, 5.08, 4.69, 4.45, 4.46, 4.08, 3.84, 3.42, 2.77, 2.29, 1.76, 1.65, 1.14, 1.05, 0.61, 0.0, -1.0, -2.4, -3.07, -3.58, -4.02, -4.47, -4.88, -4.8, -5.09, -5.09, -5.09, -4.9, -4.9, -4.55, -4.55, -4.55, -4.07, -3.73, -3.48, -3.15, -2.22, -1.76, -0.57, -0.61, -3.2, -3.88, -3.48, -2.44, -1.76, -1.08, -1.19, -1.07, -1.16, -1.16, -0.0, -0.0, -0.0, -0.0, -0.0, -0.0, 0.96, 2.98, 2.0, -0.0, -0.0, 1.41, 2.4, 4.11, 4.98, 5.29, 5.36, 5.36, 1.9, -3.91, -3.6, -0.94, 1.75, 5.06, 5.86, 6.11, 6.0, 4.82, 1.98, 0.0, -0.78, 0.0, -0.82, -0.94, -1.84, -0.89, -0.85, 0.0, 0.0, 0.85, 0.94, 1.44, 2.23, 3.06, 3.06, 5.69, 5.69, 5.7, 5.7, 5.32, 5.08, 4.69, 4.45, 4.46, 3.83, 3.4, 2.96, 2.44, 2.12, 1.76, 1.12, 1.14, 0.59, 0.0, -0.51, -1.9, -2.91, -3.53, -4.02, -4.47, -4.44, -4.8, -5.24, -5.09, -5.09, -4.9, -4.9, -4.55, -4.55, -4.55, -4.07, -4.07, -3.48, -2.86, -2.44, -1.73, -1.19, -0.0, -1.2, -3.39, -4.6, -4.07, -2.2, -1.73, -1.19, -1.07, -1.16, -1.16, -1.05, -0.58, -0.0, -0.0, -0.0, 0.89, 1.84, 1.83, 1.08, -0.0, 0.88, 1.99, 2.8, 4.74, 5.6, 6.17, 5.81, 5.81, 3.2, -2.4, -3.6, -0.94, 1.67, 4.4, 4.44, 4.2, 4.42, 4.98, 1.7, 0.95, 0.0, 0.0, -0.98, -1.6, -1.84, -1.75, 0.0, 0.0, 0.0, 0.0, 0.0, 0.77, 1.47, 2.17, 2.17, 5.69, 5.69, 5.95, 5.7, 5.46, 5.08, 5.08, 4.69, 4.45, 4.71, 4.05, 3.4, 2.75, 2.26, 2.26, 1.63, 1.12, 1.14, 0.54, 0.0, -1.88, -2.68, -3.39, -3.58, -4.02, -4.47, -4.89, -5.24, -5.24, -5.09, -4.9, -4.9, -4.8, -4.55, -4.37, -4.07, -4.07, -3.2, -2.86, -2.86, -2.2, -1.88, -1.16, -0.0, -1.05, -3.14, -4.07, -3.08, -1.73, -1.73, -1.73, -1.16, -1.16, -1.16, -1.16, -0.59, -0.0, -0.0, 0.89, 1.84, 0.96, -0.0, -0.0, 1.14, 2.99, 3.91, 4.74, 5.6, 5.81, 5.94, 5.73, 3.39, -1.08, -2.12, -1.03, 0.0, 2.2, 2.54, 1.69, 2.44, 2.8, 1.86, 2.24, 2.24, 1.9, -0.99, -1.6, -1.84, -1.75, -0.89, 0.0, 0.0, -0.74, 0.0, 0.0, 1.54, 1.54, 1.54, 5.69, 5.69, 5.69, 5.95, 5.7, 5.32, 5.08, 5.09, 5.09, 5.09, 4.71, 3.37, 3.4, 2.92, 2.4, 1.73, 1.73, 1.12, 0.53, 0.0, -1.13, -2.21, -2.5, -3.39, -3.98, -4.47, -4.92, -5.33, -5.24, -5.09, -5.09, -4.8, -4.8, -4.55, -4.37, -4.07, -3.48, -3.2, -2.86, -2.86, -2.2, -2.2, -1.7, -1.14, -0.0, -1.84, -3.72, -2.4, -1.73, -1.73, -1.73, -1.73, -1.07, -1.07, -0.54, -1.16, -0.59, -0.0, 0.89, 0.94, 0.95, 0.96, 0.88, 1.99, 2.99, 2.99, 3.47, 4.74, 4.47, 4.29, 4.34, 3.58, 0.0, 0.0, -2.21, -2.2, -0.0, 2.68, 0.89, 0.0, 0.0, 0.54, 2.17, 3.13, 3.13, 2.4, -0.88, -0.78, -0.79, 0.0, 0.0, 0.0, -0.73, -0.85, 0.0, 0.75, 1.5, 1.5, 5.92, 5.92, 6.08, 6.34, 5.7, 5.46, 5.32, 5.08, 5.34, 5.09, 5.09, 4.45, 3.37, 3.37, 2.89, 2.23, 1.71, 1.1, 0.57, 0.0, -0.57, -1.13, -2.21, -2.68, -3.39, -3.98, -4.44, -4.92, -5.33, -5.24, -4.6, -4.4, -4.4, -4.0, -4.0, -3.73, -3.48, -3.2, -2.86, -2.86, -2.44, -2.44, -2.2, -1.88, -1.7, -1.84, -2.64, -1.73, -1.76, -1.73, -1.73, -1.73, -1.07, -1.07, -0.59, -0.59, -0.58, -0.58, -0.0, 0.84, 1.73, 1.98, 2.99, 2.76, 2.76, 2.53, 2.53, 2.98, 2.84, 4.02, 1.9, 2.23, 4.02, 1.6, -4.02, -4.58, -2.67, -0.0, 2.21, 0.0, -0.77, 0.0, 1.24, 3.07, 4.02, 4.02, 1.79, 0.0, -0.82, 0.0, 0.0, 0.0, -0.84, -1.47, -0.73, 0.0, 0.73, 0.73, 6.33, 6.33, 6.33, 6.08, 5.95, 5.7, 5.06, 5.32, 5.08, 5.34, 5.34, 5.09, 4.45, 3.56, 2.89, 2.89, 2.37, 1.71, 1.1, 1.12, 0.0, -0.57, -1.33, -2.21, -2.68, -2.91, -3.09, -3.58, -6.2, -4.8, -4.6, -4.6, -4.27, -4.0, -4.0, -3.48, -3.48, -3.48, -2.86, -2.6, -2.22, -2.48, -2.22, -2.22, -2.44, -2.22, -1.11, -1.11, -1.11, -1.76, -1.73, -1.88, -1.16, -1.16, -0.59, -1.05, -0.58, -0.58, -0.0, 0.58, 1.84, 2.64, 2.76, 2.53, 2.76, 2.2, 2.2, 2.98, 3.48, 2.2, 1.27, 2.2, 5.94, 4.92, -4.02, -6.57, -3.91, -0.0, 1.08, 0.0, -2.44, -2.26, 0.0, 1.61, 3.39, 4.47, 4.92, 3.13, 1.19, 0.0, 0.0, 0.0, -0.83, -1.52, -0.75, 0.0, 0.0, 0.0, 6.33, 6.33, 6.33, 6.33, 6.34, 5.7, 5.7, 5.32, 5.32, 5.46, 5.72, 5.34, 4.69, 4.0, 3.35, 2.86, 2.86, 2.86, 2.37, 1.73, 1.12, 0.0, -0.59, -1.16, -1.61, -2.4, -2.68, -3.39, -3.87, -6.2, -4.34, -4.11, -3.88, -3.88, -3.43, -3.48, -3.48, -3.15, -2.86, -2.48, -2.23, -2.51, -2.51, -2.23, -2.23, -1.8, -1.13, -1.13, -1.27, -1.11, -1.19, -1.07, -1.16, -1.16, -0.54, -0.54, -0.59, -0.58, -0.0, -0.0, 1.14, 2.8, 2.8, 1.83, 1.99, 1.99, 1.83, 2.2, 4.11, 4.11, 2.48, 3.72, 4.82, 4.82, -0.0, -5.4, -4.98, -2.2, -0.0, -1.58, -3.4, -3.09, -1.63, 0.0, 1.61, 3.2, 4.44, 4.92, 4.98, 1.05, 0.0, 0.0, 0.0, -0.76, -0.74, -0.82, 0.0, 0.0, 6.33, 6.33, 6.33, 6.33, 6.08, 5.95, 5.7, 5.46, 5.72, 5.72, 5.72, 5.46, 5.08, 4.44, 4.0, 3.52, 3.32, 3.01, 2.86, 2.23, 1.63, 0.58, 0.0, -0.59, -1.0, -1.86, -2.68, -3.53, -4.3, -4.34, -4.3, -4.11, -3.88, -3.72, -3.43, -3.43, -3.16, -3.15, -2.86, -2.48, -1.8, -1.61, -2.21, -2.79, -2.51, -1.8, -1.13, -1.13, -0.59, -0.57, -0.55, -0.54, -0.54, -0.54, -0.61, -0.0, -0.0, -0.0, -0.0, -0.0, 2.54, 2.66, 2.8, 1.84, 0.96, 0.96, 0.96, 1.99, 1.84, 4.11, 3.48, 5.51, 5.36, 4.92, 4.8, -0.0, -4.47, -4.34, -1.98, -2.24, -3.22, -3.69, -2.51, -0.78, 0.0, 1.58, 3.82, 4.8, 5.75, 2.95, 0.0, 0.0, 0.0, -0.79, -0.77, -0.78, 0.0, 0.0, 6.33, 6.33, 6.33, 6.33, 6.33, 6.34, 5.7, 5.7, 5.46, 5.72, 5.72, 5.72, 5.08, 5.08, 4.66, 3.97, 3.97, 3.32, 2.83, 2.86, 2.23, 1.65, 0.59, 0.0, -0.61, -1.24, -2.17, -3.13, -3.58, -3.53, -3.87, -3.6, -3.6, -3.35, -3.14, -3.16, -2.86, -2.86, -2.48, -2.23, -1.13, -0.61, -1.61, -3.07, -2.84, -2.23, -1.13, -0.59, -0.0, -0.0, -0.0, -0.0, -0.0, -0.61, -0.61, -0.0, -0.0, -0.0, -0.0, 0.54, 1.16, 3.91, 4.02, 3.22, 1.7, 1.7, 1.08, 2.2, 2.0, 3.16, 3.58, 5.51, 5.36, 4.47, 5.26, 4.82, 0.0, -4.8, -4.47, -3.58, -3.07, -3.0, -2.35, -1.52, -0.88, 0.54, 2.21, 4.89, 4.54, 2.95, 0.96, 0.0, 0.0, 0.0, -0.8, -0.74, 0.0, 0.0, 6.31, 6.31, 6.33, 6.33, 6.33, 6.34, 5.95, 5.7, 5.7, 5.98, 5.98, 5.72, 5.72, 5.72, 5.32, 4.42, 3.97, 3.97, 3.49, 3.52, 2.71, 2.26, 1.23, 0.54, 0.0, -0.53, -1.58, -2.17, -2.68, -3.13, -3.07, -3.39, -3.07, -2.79, -2.79, -2.84, -2.84, -2.48, -2.48, -1.8, -1.27, -0.0, -0.0, -2.5, -3.72, -2.48, -1.27, -0.57, -0.0, -0.0, -0.0, -0.0, -0.0, -0.0, -0.0, -0.0, -0.0, -0.0, -0.0, 0.54, 1.16, 2.4, 4.29, 2.95, 2.2, 1.7, 2.0, 2.48, 3.16, 3.16, 4.84, 4.4, 6.07, 5.36, 4.92, 4.47, 2.21, -2.95, -5.37, -3.58, -2.68, -2.47, -2.35, -1.52, -1.6, 0.0, 1.99, 2.99, 4.11, 2.95, 1.19, 0.0, 0.0, 0.0, 0.0, 0.0, 0.0, 0.0, 6.31, 6.31, 6.58, 6.33, 6.33, 6.08, 5.95, 5.7, 5.7, 5.7, 6.35, 6.35, 6.35, 5.72, 5.72, 5.06, 4.63, 4.63, 3.97, 3.49, 3.52, 2.89, 2.26, 1.14, 0.55, 0.0, -0.65, -1.58, -1.7, -2.24, -2.6, -2.4, -2.5, -2.5, -2.21, -2.53, -2.23, -2.23, -2.23, -1.8, -1.27, -0.0, 0.57, -0.98, -3.14, -2.86, -1.76, -0.63, -0.0, -0.0, -0.0, -0.0, -0.54, -0.61, -0.0, -0.0, -0.0, -0.0, 0.61, 1.19, 1.16, 2.18, 4.74, 3.22, 2.95, 2.98, 2.0, 2.48, 2.23, 3.16, 4.0, 4.4, 6.51, 4.92, -2.68, -2.53, -1.4, -3.82, -5.58, -5.21, -3.07, -2.29, -2.35, -1.63, -1.72, 0.0, 0.88, 2.76, 3.22, 2.95, 1.08, 0.0, 0.0, 0.0, 0.0, 0.0, 0.0, 0.0, 6.31, 6.31, 6.58, 6.97, 6.33, 6.33, 6.34, 5.95, 5.7, 5.7, 6.08, 6.35, 6.35, 6.35, 5.72, 5.32, 5.06, 4.63, 4.63, 3.97, 4.0, 3.35, 3.4, 2.29, 1.7, 0.55, 0.0, 0.0, -0.6, -1.34, -1.6, -1.49, -1.58, -1.9, -1.61, -1.88, -1.61, -1.84, -1.6, -1.6, -1.13, -0.57, -0.0, -0.0, -1.33, -2.86, -1.76, -0.55, -0.0, -0.55, -0.61, -0.61, -0.55, -0.55, -0.0, -0.0, -0.0, -0.0, 0.61, 1.19, 1.7, 2.36, 4.56, 2.95, 2.0, 1.7, 3.22, 2.0, 2.48, 3.16, 3.72, 5.51, 6.07, 1.9, -5.94, -6.57, -4.43, -5.4, -6.02, -5.46, -3.22, -1.72, -1.63, -1.63, -1.72, 0.0, 0.88, 2.76, 2.76, 2.2, 1.08, 0.0, 0.0, 0.0, 0.0, 0.0, 0.0, 0.0, 6.31, 6.31, 6.58, 6.97, 6.71, 6.33, 6.34, 6.34, 5.7, 6.08, 6.08, 6.35, 6.35, 6.35, 6.35, 5.72, 5.32, 5.06, 5.06, 4.63, 4.42, 4.0, 4.03, 3.4, 3.0, 2.18, 1.11, 0.53, 0.0, 0.0, -0.45, -0.63, -0.8, -1.24, -1.24, -1.2, -1.4, -1.16, -1.84, -1.33, -1.33, -1.13, -0.57, -0.0, -0.0, -1.58, -1.76, -0.57, -0.0, -0.63, -0.55, -0.55, -0.63, -0.0, -0.0, -0.0, -0.0, -0.0, 0.55, 1.19, 1.19, 2.18, 2.86, 4.43, 2.2, 1.7, 2.2, 2.95, 2.95, 3.48, 4.4, 4.82, 6.07, 4.4, -5.94, -7.85, -7.12, -6.45, -6.71, -5.21, -3.63, -1.84, -1.72, -2.2, -1.52, 0.0, 0.76, 1.84, 2.76, 2.2, 1.08, 0.0, 0.0, 0.0, 0.0, 0.0, 0.0, 0.0, 6.31, 6.31, 6.58, 6.97, 6.71, 6.33, 6.34, 6.34, 6.34, 6.34, 6.34, 6.63, 6.35, 6.69, 6.35, 6.35, 5.72, 5.32, 5.06, 5.06, 5.08, 4.66, 4.69, 4.05, 3.84, 3.47, 2.61, 2.23, 1.2, 0.6, 0.45, 0.45, -0.0, -0.0, -0.57, -0.71, -0.65, -1.2, -1.16, -1.16, -1.16, -1.16, -0.61, -0.59, -0.0, -0.0, -1.11, -0.59, -0.0, -0.0, -0.0, -0.0, -0.0, -0.0, -0.0, -0.0, -0.0, -0.0, 0.63, 1.08, 1.19, 1.7, 2.82, 3.0, 1.7, 2.2, 2.48, 3.79, 3.48, 4.4, 4.98, 4.82, 5.94, 5.21, -0.0, -6.94, -7.37, -7.1, -6.26, -4.98, -3.35, -1.7, -1.84, -1.6, -0.78, 0.0, 0.89, 1.98, 1.99, 1.83, 0.96, 0.0, 0.0, 0.0, 0.0, 0.0, 0.0, 0.0, 6.31, 6.31, 6.97, 6.97, 6.71, 6.33, 6.61, 6.34, 6.34, 6.34, 6.34, 6.63, 6.98, 6.98, 6.69, 6.35, 5.72, 5.72, 5.72, 5.32, 5.32, 5.08, 5.09, 4.71, 4.73, 4.1, 4.12, 3.48, 2.79, 2.4, 1.7, 1.34, 0.63, -0.0, -0.0, -0.0, -0.0, -0.54, -0.65, -0.53, -0.53, -0.53, -0.61, -0.61, -0.59, -0.0, -0.0, -0.0, -0.0, -0.0, -0.0, -0.0, -0.0, -0.0, -0.0, -0.0, -0.0, -0.0, 0.57, 0.63, 1.23, 1.73, 2.4, 4.29, 3.22, 3.48, 3.48, 3.79, 4.4, 4.98, 4.98, 3.93, 4.84, 3.48, 1.98, -3.47, -6.45, -7.15, -6.17, -4.98, -3.48, -2.53, -1.55, -0.88, -0.82, 0.0, 0.95, 1.72, 1.84, 1.99, 1.05, 0.0, 0.0, 0.0, 0.0, 0.0, 0.0, 0.0, 6.31, 6.31, 6.97, 6.97, 6.97, 6.71, 6.61, 6.34, 6.34, 6.34, 6.34, 6.63, 6.98, 6.98, 6.69, 6.69, 6.35, 5.72, 5.72, 5.72, 5.72, 5.72, 5.72, 5.36, 5.38, 5.08, 4.45, 4.11, 4.0, 3.2, 2.49, 2.24, 1.79, 1.2, 0.6, 0.6, -0.0, -0.0, -0.0, -0.0, -0.0, -0.0, -0.0, -0.53, -0.61, -0.0, -0.0, -0.0, -0.0, -0.0, -0.0, -0.0, -0.0, -0.0, -0.0, -0.0, 0.66, 0.57, 0.57, 0.57, 1.11, 1.23, 1.76, 4.29, 4.02, 4.11, 4.46, 4.46, 4.57, 5.4, 4.4, 3.16, 2.0, 2.0, 0.96, -0.0, -3.48, -6.26, -6.45, -5.37, -3.79, -2.3, -1.66, -0.81, 0.0, 0.89, 0.95, 1.84, 1.84, 1.99, 1.05, 0.0, 0.0, 0.0, 0.0, 0.0, 0.0, 0.0, 6.31, 6.31, 6.97, 6.97, 6.97, 6.71, 6.98, 6.34, 6.34, 6.34, 6.34, 6.98, 6.98, 6.98, 6.69, 6.69, 6.97, 6.35, 6.0, 5.72, 5.72, 5.72, 5.72, 5.72, 5.71, 5.69, 5.06, 4.94, 4.55, 3.88, 3.82, 3.07, 2.68, 2.24, 1.7, 1.26, 0.8, -0.0, -0.0, -0.0, -0.0, -0.0, -0.0, -0.0, -0.0, -0.0, -0.0, -0.0, -0.0, -0.0, -0.0, -0.0, -0.0, -0.0, -0.0, 0.59, 0.59, 0.59, 0.59, 0.66, 0.66, 1.27, 1.58, 2.22, 4.56, 5.36, 4.84, 4.4, 4.98, 4.4, 4.11, 2.23, 2.0, 1.08, 1.08, 1.08, -0.0, -4.02, -5.6, -4.89, -3.91, -2.53, -1.83, 0.0, 0.0, 0.82, 1.72, 1.84, 1.98, 1.99, 1.84, 0.0, -0.96, 0.0, 0.0, 0.89, 0.89, 0.89, 6.7, 6.7, 6.97, 6.97, 6.97, 6.71, 6.98, 6.61, 6.34, 6.34, 6.34, 6.98, 6.98, 6.98, 6.69, 6.97, 6.97, 6.67, 6.35, 6.35, 5.72, 6.34, 6.34, 6.32, 6.01, 5.69, 5.65, 5.49, 5.21, 4.8, 4.11, 3.87, 3.13, 2.68, 2.17, 2.12, 1.26, 0.57, 0.57, 0.57, -0.0, -0.0, -0.0, -0.0, -0.0, -0.0, -0.0, -0.0, -0.0, -0.0, -0.0, -0.0, -0.0, -0.0, 0.61, 0.61, 0.61, 0.59, 0.59, 0.59, 1.13, 1.27, 1.8, 2.22, 3.79, 5.72, 5.2, 3.93, 3.93, 3.48, 2.48, 2.48, 2.48, 2.23, 2.23, 3.35, 3.35, -0.0, -3.72, -4.11, -3.91, -2.8, -1.98, -0.76, 0.0, 0.89, 1.72, 2.47, 1.98, 1.52, 0.0, 0.0, -1.03, 0.0, 0.0, 1.01, 1.01, 1.01, 6.7, 6.7, 6.97, 6.97, 6.97, 6.71, 6.98, 6.98, 6.34, 6.34, 6.63, 6.98, 6.69, 6.69, 6.97, 6.97, 6.97, 6.97, 6.67, 6.35, 6.34, 6.34, 6.04, 6.32, 6.28, 5.95, 6.15, 5.86, 5.75, 5.08, 5.02, 4.34, 3.98, 3.58, 3.13, 2.6, 2.12, 1.58, 1.24, 1.26, 0.8, 0.57, 0.71, 0.54, -0.0, -0.0, -0.0, -0.0, 0.61, 0.61, 0.61, 0.61, -0.0, 0.61, 0.61, 0.61, 0.61, 0.61, 0.61, 0.59, 1.13, 1.13, 1.8, 2.22, 3.2, 5.72, 4.84, 3.79, 4.84, 4.4, 3.16, 3.16, 3.16, 3.72, 3.72, 4.0, 3.82, 2.68, -2.21, -2.95, -2.99, -2.8, -3.0, -1.6, 0.0, 0.78, 1.63, 2.35, 2.12, 1.05, 0.96, 0.0, 0.0, 0.0, 0.0, 0.83, 0.83, 0.83, 6.97, 6.97, 6.97, 6.97, 6.71, 6.71, 6.98, 6.98, 6.7, 6.34, 6.98, 6.69, 6.69, 6.97, 6.97, 7.27, 7.27, 6.97, 6.67, 6.95, 6.34, 6.34, 6.32, 6.32, 6.28, 6.57, 6.51, 6.41, 5.75, 5.6, 5.31, 4.6, 4.44, 4.02, 3.58, 3.13, 2.6, 1.86, 1.86, 1.49, 1.26, 0.57, 0.71, 0.54, 0.65, -0.0, 0.61, 0.61, 0.61, 0.53, 0.53, 0.53, 0.53, 0.53, 0.61, 0.61, 0.61, 1.16, 1.16, 0.61, 1.16, 1.33, 1.6, 1.8, 2.86, 4.29, 4.43, 4.84, 4.84, 4.98, 5.26, 4.4, 4.4, 3.72, 4.0, 4.4, 4.0, 2.8, 0.0, -1.08, -2.4, -3.22, -3.72, -1.6, 0.0, 0.0, 1.63, 2.35, 1.6, 0.81, 1.99, 1.14, 0.0, 0.0, 0.0, 0.83, 0.83, 0.83, 6.97, 6.97, 6.97, 6.97, 6.71, 6.98, 6.98, 6.98, 6.7, 6.7, 6.98, 6.69, 6.69, 6.97, 7.27, 7.27, 7.27, 7.27, 6.95, 6.95, 6.95, 6.64, 6.32, 6.62, 6.28, 6.23, 6.51, 6.41, 6.28, 6.0, 5.4, 5.09, 4.77, 4.43, 4.02, 3.13, 2.63, 2.6, 2.6, 2.12, 1.49, 1.26, 1.24, 1.0, 0.65, 0.61, 0.61, 1.16, 1.2, 0.65, 0.65, 0.65, 0.65, 0.65, 0.65, 0.65, 1.16, 1.16, 1.16, 1.16, 1.16, 1.16, 1.33, 1.8, 2.48, 3.91, 4.43, 4.29, 4.98, 5.26, 5.29, 5.36, 4.0, 3.16, 3.48, 3.93, 4.29, 4.0, 3.13, 0.0, -1.08, -2.99, -3.0, -1.96, 0.0, 0.0, 1.63, 1.63, 1.72, 0.82, 1.7, 2.16, 1.84, 1.03, 0.95, 0.83, 0.83, 0.83, 6.97, 6.97, 6.97, 6.97, 6.71, 6.98, 6.98, 6.98, 6.7, 6.98, 6.98, 6.69, 6.69, 6.97, 7.27, 7.27, 7.55, 7.55, 7.23, 6.95, 6.95, 6.92, 6.32, 6.62, 6.28, 6.23, 6.51, 6.41, 6.28, 6.0, 5.81, 5.51, 5.09, 4.34, 3.98, 3.58, 3.13, 3.07, 2.63, 2.6, 2.17, 1.86, 1.24, 1.2, 0.65, 0.53, 1.2, 1.2, 1.2, 1.2, 0.65, 1.2, 1.2, 1.2, 0.65, 1.2, 1.2, 1.4, 1.4, 1.2, 1.4, 1.16, 1.16, 1.84, 2.23, 3.91, 4.74, 4.43, 4.11, 4.6, 5.4, 5.36, 4.47, 3.72, 3.48, 4.29, 4.29, 4.6, 4.77, 3.2, 0.0, -1.08, -1.14, -0.95, -0.89, 0.0, 1.63, 1.63, 1.52, 0.82, 1.6, 1.7, 2.4, 1.98, 1.98, 1.84, 1.84, 1.84, 6.97, 6.97, 6.97, 6.71, 6.71, 6.98, 6.98, 6.98, 6.7, 6.98, 6.98, 6.69, 6.97, 6.97, 7.27, 7.27, 7.55, 7.55, 7.23, 7.23, 7.51, 6.92, 6.59, 6.87, 6.28, 6.57, 6.51, 6.15, 6.03, 5.75, 5.6, 5.4, 5.09, 4.77, 4.44, 4.02, 3.58, 3.58, 3.13, 3.13, 2.6, 2.15, 1.9, 1.61, 1.2, 0.65, 1.2, 1.61, 1.2, 1.2, 1.2, 1.2, 1.2, 1.2, 1.2, 1.2, 1.2, 1.2, 1.61, 1.2, 1.2, 1.4, 1.4, 1.61, 1.84, 2.86, 4.74, 3.72, 3.91, 4.89, 4.89, 4.29, 3.35, 2.53, 3.35, 4.4, 4.6, 5.51, 5.73, 4.92, 1.4, 0.0, 0.0, -1.19, -2.31, 0.0, 0.74, 1.63, 1.72, 0.89, 0.82, 1.6, 1.98, 2.8, 1.98, 1.98, 1.98, 1.98, 6.97, 6.97, 6.97, 6.71, 6.98, 6.98, 6.98, 6.98, 6.7, 6.98, 6.98, 6.98, 6.97, 7.27, 7.27, 7.55, 7.55, 7.55, 7.23, 7.51, 7.51, 7.17, 7.21, 6.87, 6.79, 6.79, 6.51, 6.15, 6.03, 6.28, 6.0, 5.81, 5.51, 5.24, 4.44, 4.47, 4.02, 3.58, 3.58, 3.13, 3.07, 2.5, 2.5, 1.9, 1.61, 1.2, 1.49, 1.9, 1.9, 1.2, 1.2, 1.2, 1.61, 1.2, 1.2, 1.2, 1.2, 1.9, 1.9, 1.61, 1.61, 1.61, 1.88, 1.88, 1.88, 2.23, 2.99, 3.72, 4.74, 5.24, 4.43, 3.91, 2.76, 2.2, 2.84, 4.0, 4.98, 5.94, 6.26, 5.73, 2.8, -3.13, -4.34, -5.49, -3.91, -1.55, 0.0, 0.78, 1.72, 1.6, 0.82, 0.82, 1.98, 2.8, 2.8, 2.8, 2.8, 2.8, 6.97, 6.97, 6.97, 6.71, 6.98, 6.98, 6.98, 6.98, 6.98, 6.98, 6.98, 6.98, 6.97, 7.27, 7.27, 7.55, 7.55, 7.55, 7.23, 7.51, 7.51, 7.17, 7.44, 6.87, 7.15, 6.79, 6.7, 6.41, 6.41, 6.28, 6.1, 5.81, 5.57, 5.24, 4.89, 4.44, 4.47, 4.02, 4.02, 3.58, 2.91, 2.5, 2.5, 2.15, 1.61, 1.61, 1.9, 1.9, 1.9, 1.49, 1.49, 1.9, 1.9, 1.9, 1.9, 1.9, 1.9, 1.9, 1.9, 1.9, 1.9, 1.9, 1.61, 1.88, 1.88, 1.88, 2.23, 3.43, 5.58, 5.58, 4.89, 3.91, 3.91, 3.91, 4.43, 3.93, 4.98, 5.51, 6.17, 5.81, 3.13, -4.24, -6.26, -6.21, -4.03, -1.55, 0.0, 0.0, 0.78, 1.6, 0.76, 0.82, 1.98, 1.98, 2.8, 2.8, 2.8, 2.8, 6.97, 6.97, 6.97, 6.98, 6.98, 6.98, 6.98, 6.98, 6.98, 6.98, 6.98, 6.98, 6.97, 7.27, 7.27, 7.55, 7.55, 7.55, 7.51, 7.51, 7.51, 7.17, 7.44, 7.35, 7.15, 7.07, 6.7, 6.95, 6.56, 6.28, 6.51, 6.3, 5.99, 5.24, 5.24, 4.88, 4.44, 4.44, 4.02, 3.58, 2.91, 2.91, 2.91, 2.15, 1.9, 2.15, 2.15, 2.4, 1.9, 1.9, 1.9, 1.9, 1.9, 1.9, 1.9, 1.9, 1.9, 1.9, 1.9, 1.9, 2.15, 2.21, 1.9, 1.9, 1.88, 2.21, 2.5, 3.07, 5.21, 5.21, 5.37, 4.89, 4.89, 4.89, 5.21, 5.6, 4.98, 5.4, 5.4, 5.4, 3.72, -1.6, -6.2, -5.58, -3.55, -0.89, 0.0, 0.0, 0.78, 1.6, 1.7, 0.88, 0.96, 1.98, 1.98, 2.6, 2.6, 2.6, 6.97, 6.97, 7.26, 6.98, 6.98, 6.98, 6.98, 6.98, 6.98, 6.98, 6.98, 6.98, 7.28, 7.27, 7.27, 7.55, 7.55, 7.55, 7.51, 7.51, 7.51, 7.44, 7.44, 7.35, 7.35, 7.07, 7.07, 6.95, 6.56, 6.8, 6.51, 6.3, 5.81, 5.57, 5.24, 4.8, 4.88, 4.44, 4.02, 3.53, 3.39, 3.32, 2.91, 2.4, 2.4, 2.4, 2.8, 2.4, 2.23, 1.58, 1.9, 2.15, 2.5, 2.15, 2.15, 2.15, 2.15, 2.4, 2.4, 2.15, 2.15, 2.5, 2.5, 2.5, 2.5, 2.5, 2.5, 3.07, 3.72, 5.6, 5.6, 4.98, 4.98, 5.6, 6.0, 6.16, 5.94, 4.98, 4.98, 4.89, 3.91, -2.53, -5.26, -4.89, -3.72, -1.84, -0.76, 0.0, 0.0, 1.83, 1.83, 1.83, 1.7, 1.98, 1.98, 1.98, 1.98, 1.98, 7.26, 7.26, 6.98, 6.98, 6.98, 6.98, 6.98, 6.98, 7.27, 6.98, 6.98, 6.98, 7.28, 7.27, 7.27, 7.55, 7.55, 7.55, 7.51, 7.51, 7.51, 7.44, 7.44, 7.35, 7.35, 7.07, 7.07, 6.95, 6.56, 6.8, 6.51, 6.1, 5.81, 5.57, 5.09, 5.24, 4.8, 4.44, 4.02, 3.98, 3.53, 3.53, 3.39, 2.91, 2.4, 2.4, 2.91, 2.8, 2.4, 2.23, 2.23, 2.5, 2.5, 2.5, 2.5, 2.5, 2.5, 2.5, 2.4, 2.4, 2.4, 2.5, 2.5, 2.5, 2.5, 2.5, 2.5, 3.07, 3.6, 5.94, 5.6, 4.98, 4.98, 5.6, 6.0, 5.6, 4.98, 4.6, 4.29, 4.11, 4.74, 2.4, -3.58, -4.98, -4.74, -3.91, -1.66, 0.0, 0.0, 1.13, 2.84, 2.68, 1.7, 1.03, 1.03, 0.96, 0.96, 0.96, 7.61, 7.61, 7.32, 6.98, 6.98, 6.98, 6.98, 6.98, 6.98, 6.98, 6.98, 6.98, 7.28, 7.27, 7.27, 7.55, 7.55, 7.55, 7.51, 7.51, 7.8, 7.44, 7.44, 7.35, 6.79, 7.07, 6.7, 6.95, 6.56, 6.67, 6.51, 6.1, 5.81, 5.4, 5.51, 5.09, 4.8, 4.44, 4.47, 4.02, 3.98, 3.53, 3.53, 2.91, 2.91, 3.07, 3.07, 2.4, 2.4, 2.4, 2.4, 2.8, 2.8, 2.8, 2.5, 2.5, 3.07, 3.07, 2.68, 2.8, 2.4, 2.8, 2.68, 2.68, 2.5, 2.5, 2.5, 3.07, 3.6, 5.37, 4.89, 4.89, 5.6, 5.6, 5.6, 4.89, 4.11, 3.79, 3.22, 4.11, 5.15, 3.91, -1.6, -5.51, -4.89, -4.89, -3.22, -0.99, 0.0, 0.0, 2.21, 2.53, 1.66, 1.14, 0.0, 1.05, 1.05, 1.05, 7.61, 7.61, 7.61, 7.32, 6.98, 6.98, 6.98, 6.98, 6.98, 6.98, 6.98, 6.98, 7.59, 7.27, 7.27, 7.55, 7.55, 7.55, 7.51, 7.51, 7.8, 7.44, 7.44, 7.35, 6.79, 7.07, 6.7, 6.95, 6.56, 6.28, 6.28, 6.1, 5.6, 5.81, 5.31, 5.09, 4.8, 4.44, 4.47, 4.02, 4.02, 3.58, 3.53, 3.07, 3.07, 3.07, 3.07, 2.6, 2.4, 2.8, 2.91, 2.4, 3.07, 2.4, 2.4, 2.5, 2.5, 3.07, 3.07, 3.07, 2.8, 2.91, 2.91, 3.32, 3.07, 2.91, 2.91, 3.32, 3.2, 3.6, 4.27, 6.16, 6.0, 5.6, 5.37, 4.89, 4.54, 4.89, 4.98, 4.98, 5.6, 4.11, -1.6, -5.81, -5.6, -4.89, -4.11, -1.8, -0.99, 0.0, 0.0, 1.9, 2.21, 1.13, 0.0, 0.0, 0.0, 0.0, 7.61, 7.61, 7.61, 7.32, 7.32, 7.32, 6.98, 6.98, 6.98, 7.27, 7.3, 7.3, 7.3, 7.59, 7.27, 7.55, 7.55, 7.23, 7.51, 7.51, 7.8, 7.44, 7.44, 7.35, 6.79, 7.07, 6.7, 6.95, 6.41, 6.28, 6.28, 6.0, 5.6, 5.81, 5.4, 5.09, 4.8, 4.88, 4.47, 4.47, 4.02, 4.02, 3.58, 3.09, 3.09, 3.53, 3.07, 2.63, 2.6, 3.07, 3.07, 3.07, 3.07, 3.07, 2.4, 2.4, 2.8, 3.32, 3.2, 3.2, 3.07, 2.91, 3.32, 3.32, 3.39, 3.32, 2.91, 2.91, 3.39, 3.39, 4.3, 6.02, 6.0, 6.4, 4.98, 4.98, 4.98, 5.21, 5.6, 5.6, 5.6, 3.79, -1.27, -5.81, -5.51, -5.37, -4.43, -2.99, -1.66, -0.87, 0.0, 0.0, 1.58, 1.58, 1.58, 1.58, 1.58, 1.58, 7.61, 7.61, 7.61, 7.61, 7.32, 7.32, 7.32, 6.98, 6.98, 7.27, 7.3, 7.3, 7.3, 7.59, 7.27, 7.55, 7.55, 7.23, 7.51, 7.51, 7.44, 7.44, 7.44, 7.35, 7.07, 7.07, 6.7, 6.95, 6.41, 6.28, 6.28, 6.1, 6.0, 5.81, 5.57, 5.51, 5.24, 4.89, 4.92, 4.47, 4.47, 4.02, 3.58, 3.58, 3.58, 3.58, 3.13, 2.63, 2.6, 3.07, 3.53, 3.07, 3.07, 2.91, 2.91, 2.8, 2.6, 3.07, 3.32, 3.39, 3.39, 3.32, 3.32, 3.39, 3.39, 3.39, 3.53, 3.07, 3.53, 3.53, 3.98, 4.34, 4.77, 7.45, 5.73, 5.26, 5.51, 5.58, 5.58, 5.6, 5.6, 4.11, -1.27, -5.36, -5.4, -4.98, -4.43, -3.22, -2.99, -2.16, -1.19, 0.0, 0.0, 0.0, 0.0, 1.4, 1.4, 1.4, 7.61, 7.61, 7.61, 7.61, 7.32, 7.32, 7.32, 6.98, 6.98, 7.27, 7.3, 7.3, 7.3, 7.59, 7.27, 7.55, 7.55, 7.23, 7.51, 7.51, 7.44, 7.44, 7.44, 7.35, 7.07, 7.07, 6.7, 6.95, 6.41, 6.28, 6.28, 6.1, 6.0, 5.81, 5.57, 5.51, 5.24, 4.89, 4.92, 4.47, 4.47, 4.02, 3.58, 3.58, 3.58, 3.58, 3.13, 2.63, 2.6, 3.07, 3.53, 3.07, 3.07, 2.91, 2.91, 2.8, 2.6, 3.07, 3.32, 3.39, 3.39, 3.32, 3.32, 3.39, 3.39, 3.39, 3.53, 3.07, 3.53, 3.53, 3.98, 4.34, 4.77, 7.45, 5.73, 5.26, 5.6, 5.58, 5.58, 5.6, 5.6, 4.11, -0.0, -4.82, -5.7, -4.98, -4.11, -2.99, -3.22, -1.98, -1.84, -1.05, 0.0, 0.0, 0.0, 0.0, 0.0, 0.0]}, {"header": {"dx": 0.06612293990616946, "dy": 0.0552356325346848, "nx": 98, "ny": 59, "la1": 35.046912555036876, "la2": 31.78801023549047, "lo1": -121.43107172385933, "lo2": -114.95102361305473, "refTime": "2026041718", "parameterCategory": 1, "parameterNumber": 3}, "data": [-2.91, -2.91, -2.91, -2.91, -2.68, -3.07, -2.79, -2.84, -2.86, -2.61, -2.4, -2.18, -0.96, 2.53, 4.02, 4.92, 5.26, 5.26, 5.94, 5.58, 5.21, 4.11, 2.21, -0.0, -0.0, -0.0, -1.99, -2.8, -2.8, -3.91, -3.63, -3.48, -4.0, -4.34, -4.92, -5.36, -5.29, -4.98, -4.6, -3.93, -2.24, 1.14, 1.49, -0.0, -0.0, -0.0, -0.0, -0.89, -1.65, -1.84, -2.82, -2.82, -3.0, -3.0, -2.8, -3.91, -2.99, -3.22, -2.95, -2.48, -2.23, -3.35, -4.0, -4.98, -6.0, -6.57, -7.12, -7.53, -8.06, -8.06, -8.06, -7.85, -7.85, -7.55, -7.55, -8.0, -8.49, -8.49, -9.39, -9.79, -10.14, -9.66, -8.8, -7.81, -6.01, -4.16, -2.64, -0.95, -1.84, -2.8, -4.29, -4.34, -4.02, -4.92, -6.64, -7.81, -8.56, -9.97, -3.07, -3.07, -2.91, -3.32, -3.32, -3.07, -2.79, -2.84, -2.86, -2.86, -2.44, -2.8, -0.96, 2.21, 4.47, 5.09, 4.4, 5.94, 5.94, 4.6, 5.06, 4.74, 3.72, 3.16, -0.0, -1.08, -2.2, -2.99, -3.91, -3.72, -3.91, -3.63, -4.6, -4.98, -6.02, -5.6, -4.6, -4.0, -3.39, -0.0, 2.12, 2.69, 2.83, 0.89, -0.0, -0.0, -0.0, -0.94, -1.73, -1.96, -2.64, -2.64, -2.64, -2.6, -2.4, -2.99, -2.76, -2.4, -2.0, -1.27, -1.27, -2.53, -4.0, -4.98, -5.6, -6.57, -6.57, -7.12, -7.53, -7.2, -7.63, -7.81, -7.37, -7.1, -7.54, -8.05, -8.49, -8.49, -9.39, -9.79, -10.14, -9.66, -8.8, -7.81, -6.01, -4.16, -2.64, -0.95, -1.84, -2.8, -4.29, -4.34, -4.02, -4.92, -6.64, -7.81, -8.56, -9.97, -3.07, -3.07, -3.39, -3.39, -3.39, -3.2, -3.35, -2.84, -2.86, -2.6, -2.44, -1.11, 0.0, 2.53, 2.21, 3.35, 3.93, 4.98, 5.4, 6.0, 4.54, 5.06, 5.06, 5.06, 3.48, -1.4, -2.95, -3.79, -4.89, -4.74, -4.74, -4.89, -5.6, -7.06, -5.15, -1.4, -0.0, 0.84, 2.54, 3.32, 3.88, 2.35, 1.75, 0.94, -0.0, -0.0, -0.94, -0.89, -1.84, -1.84, -2.12, -1.98, -1.98, -2.99, -2.76, -2.76, -2.76, -1.99, -2.2, -2.0, -2.48, -3.35, -4.4, -5.4, -6.0, -6.57, -6.21, -6.6, -6.6, -6.6, -7.12, -6.94, -7.1, -7.1, -7.6, -8.05, -8.94, -9.39, -8.94, -9.8, -10.14, -9.97, -9.36, -8.43, -7.07, -5.06, -3.11, -1.96, -1.73, -2.82, -2.99, -2.84, -2.21, -4.02, -5.51, -7.12, -8.06, -9.49, -3.07, -3.53, -3.39, -3.39, -3.39, -3.2, -3.35, -3.09, -2.84, -2.58, -2.23, -1.58, 0.0, 2.95, 3.48, 3.48, 4.29, 5.2, 4.98, 4.98, 4.54, 4.74, 4.74, 3.91, 3.91, 0.0, -3.82, -4.57, -4.82, -3.72, -2.53, -2.53, -3.13, -4.47, -0.0, 2.82, 3.15, 4.2, 4.34, 3.49, 2.47, 1.75, 0.85, -0.0, -0.0, -0.89, -0.94, -1.73, -1.84, -1.84, -2.47, -2.8, -2.8, -3.63, -3.63, -2.99, -2.99, -2.99, -1.99, -2.4, -3.48, -4.4, -4.57, -5.6, -5.58, -6.21, -6.6, -5.82, -5.82, -6.07, -6.57, -6.88, -6.64, -6.26, -6.71, -8.05, -8.94, -9.39, -9.83, -10.25, -10.18, -10.41, -9.75, -8.8, -8.17, -6.18, -5.49, -4.58, -3.77, -3.77, -3.22, -1.41, 0.0, -3.2, -4.98, -6.21, -7.76, -8.72, -3.53, -3.53, -3.39, -3.39, -3.39, -3.6, -3.35, -3.35, -3.14, -2.23, -1.84, -1.13, 0.0, 2.4, 3.22, 3.79, 4.6, 4.98, 4.98, 4.98, 5.58, 6.4, 5.58, 5.06, 4.54, 4.43, 0.0, 0.0, 0.0, 2.24, 3.58, 4.02, 3.58, 4.02, 5.21, 3.97, 2.99, 2.83, 1.75, 0.89, -0.0, -0.0, -0.0, -0.0, -0.89, -0.89, -1.84, -1.73, -2.82, -2.64, -3.72, -3.72, -3.91, -4.43, -3.91, -3.63, -2.99, -2.8, -2.8, -2.99, -3.79, -3.93, -4.98, -5.6, -5.95, -6.6, -6.18, -6.82, -7.2, -7.6, -7.53, -7.37, -6.26, -6.71, -7.1, -7.11, -8.44, -8.94, -9.83, -9.81, -10.18, -10.45, -10.41, -9.49, -8.56, -8.06, -7.2, -6.55, -5.84, -5.06, -3.91, -1.27, 0.0, -1.6, -4.98, -6.21, -7.76, -8.72, -3.39, -3.39, -3.82, -3.87, -3.82, -3.6, -3.6, -3.6, -3.07, -2.15, -1.9, -0.53, 0.0, 1.05, 3.22, 4.98, 5.6, 5.81, 4.98, 4.57, 4.8, 4.98, 6.8, 6.8, 6.4, 6.07, 5.94, 6.26, 6.26, 6.26, 4.92, 4.82, 4.98, 4.11, 2.6, 1.72, 0.89, -0.0, -0.0, -0.84, -1.75, -2.7, -1.75, -1.75, -1.84, -1.75, -2.67, -2.67, -3.55, -3.55, -4.58, -4.74, -4.74, -3.91, -3.91, -3.22, -2.8, -3.0, -3.72, -3.91, -3.79, -4.29, -4.98, -5.58, -6.18, -6.55, -6.55, -7.2, -8.4, -9.13, -9.06, -8.77, -8.44, -8.05, -8.0, -8.29, -8.29, -8.9, -9.39, -10.25, -10.58, -10.89, -10.45, -9.97, -9.49, -9.06, -8.56, -7.53, -6.57, -5.6, -4.29, -1.4, 0.0, -2.84, -5.37, -6.6, -7.76, -8.72, -3.87, -3.87, -3.87, -3.87, -3.87, -3.6, -3.2, -3.32, -2.49, -1.86, -1.26, 0.0, 0.96, 1.83, 3.22, 5.4, 5.94, 5.94, 5.73, 4.15, 4.0, 4.98, 4.98, 6.0, 6.4, 6.51, 6.71, 7.15, 6.94, 5.36, 6.26, 4.82, 3.93, 2.99, 1.6, 0.89, -0.0, -1.58, -1.49, -0.96, -1.49, -2.69, -3.87, -4.05, -4.05, -3.63, -3.45, -3.77, -4.58, -4.56, -5.37, -4.74, -3.91, -2.99, -2.16, -1.84, -2.8, -3.0, -3.55, -3.72, -4.11, -4.6, -5.37, -5.95, -6.18, -6.82, -7.2, -7.76, -8.99, -9.49, -9.97, -10.14, -10.25, -10.28, -9.79, -9.35, -8.77, -8.9, -9.79, -10.6, -10.89, -11.11, -10.89, -10.6, -10.6, -9.58, -8.56, -6.64, -4.47, -3.2, -1.2, 0.0, 0.0, -3.35, -5.6, -6.6, -7.82, -8.72, -3.87, -3.87, -4.3, -4.3, -3.87, -3.82, -3.39, -3.07, -2.6, -1.79, -1.26, 0.0, 2.0, 4.65, 6.07, 5.81, 5.81, 6.2, 5.73, 5.26, 4.34, 3.9, 4.82, 5.4, 5.6, 6.51, 6.71, 6.51, 6.71, 6.71, 7.15, 7.15, 5.94, 3.72, 1.6, 0.89, -0.0, -0.95, -1.4, -0.0, -0.0, -1.4, -2.69, -5.46, -5.7, -6.5, -5.46, -5.1, -4.58, -4.56, -3.72, -3.0, -1.98, -1.84, -0.96, -0.96, -1.03, -1.84, -2.64, -3.72, -4.89, -4.98, -4.89, -5.58, -5.49, -6.55, -7.2, -7.63, -8.29, -8.77, -8.77, -9.79, -10.25, -10.28, -10.28, -9.39, -9.39, -9.35, -10.14, -10.89, -10.32, -10.52, -10.25, -10.02, -10.05, -9.58, -7.71, -4.24, 3.13, 3.35, 2.84, 0.99, 0.0, -4.34, -6.0, -7.2, -7.82, -9.13, -4.19, -4.11, -4.11, -4.3, -3.87, -3.39, -3.07, -2.68, -2.24, -1.79, -1.6, -0.8, 4.4, 6.17, 6.71, 6.71, 6.64, 6.26, 6.26, 6.26, 6.26, 5.81, 5.36, 5.81, 5.73, 6.26, 6.71, 6.71, 6.94, 6.8, 7.47, 8.05, 6.51, 3.47, 0.89, 0.95, 1.49, -0.0, -0.0, -0.0, -0.0, -1.4, -2.99, -4.6, -5.46, -5.21, -6.24, -6.58, -5.1, -3.55, -3.91, -2.64, -1.84, -0.95, -0.89, -0.89, -0.95, -1.72, -3.0, -4.19, -4.89, -4.89, -4.89, -5.24, -5.58, -6.21, -6.6, -6.88, -6.45, -6.45, -7.1, -7.11, -7.6, -7.56, -8.49, -9.39, -9.83, -10.7, -11.05, -10.62, -10.6, -10.01, -9.6, -9.08, -8.91, -8.82, -6.4, 0.0, 4.38, 4.8, 3.79, 0.98, -1.98, -5.36, -6.88, -7.2, -8.72, -9.66, -4.6, -4.6, -4.11, -4.3, -3.87, -3.53, -3.13, -2.68, -2.24, -2.24, -2.12, -1.26, 0.95, 2.6, 5.81, 5.94, 5.94, 5.4, 6.07, 6.26, 6.71, 6.71, 6.71, 7.15, 6.71, 6.26, 6.26, 7.01, 7.47, 6.98, 7.67, 8.48, 7.47, 3.72, -0.0, -0.0, 1.4, 0.83, -0.0, -0.0, -0.0, -1.73, -2.82, -3.77, -3.6, -4.12, -4.34, -5.06, -5.06, -4.34, -3.6, -2.83, -1.84, -1.84, -1.84, -0.89, -1.01, -1.72, -2.8, -3.91, -4.89, -4.89, -6.08, -5.58, -5.58, -5.95, -5.58, -4.6, -4.38, -4.77, -5.26, -5.29, -5.29, -6.21, -7.6, -8.05, -9.79, -10.14, -10.18, -10.7, -10.62, -10.49, -9.2, -8.49, -8.24, -7.07, -4.74, 0.0, 2.84, 3.16, 2.53, 0.0, -3.22, -5.26, -6.45, -7.2, -8.72, -9.66, -4.9, -4.6, -4.11, -3.87, -3.39, -3.53, -3.13, -2.68, -2.24, -2.24, -2.17, -1.26, 0.0, 0.8, 4.77, 3.93, 3.72, 0.63, 0.89, 1.34, 4.47, 4.82, 5.36, 5.81, 6.07, 5.51, 5.51, 6.07, 7.45, 7.67, 6.95, 7.4, 7.51, 4.5, 1.75, -0.0, -0.0, -0.0, -0.89, -1.75, -1.84, -2.51, -2.82, -3.91, -3.8, -4.12, -4.2, -4.4, -5.06, -4.83, -4.2, -4.56, -4.34, -3.63, -3.32, -1.67, -1.84, -1.84, -3.22, -4.43, -5.58, -5.58, -5.58, -6.21, -5.49, -4.19, -3.63, -3.48, -3.35, -3.2, -3.39, -3.39, -4.02, -5.29, -7.15, -8.01, -8.19, -8.99, -9.68, -10.7, -10.7, -11.08, -10.32, -8.88, -7.33, -6.32, -4.03, -0.82, 0.0, 0.88, 0.81, 0.0, -1.99, -4.4, -6.17, -7.53, -8.72, -9.66, -5.81, -5.09, -4.19, -3.87, -3.39, -3.53, -3.13, -2.68, -2.68, -2.68, -2.17, -1.7, -0.63, 0.45, 0.8, 0.4, -0.0, 0.0, 0.0, 0.0, 0.89, 1.34, 1.34, 5.36, 5.09, 4.66, 4.47, 1.79, 4.34, 6.71, 7.33, 6.31, 6.31, 4.92, 2.59, 0.89, -0.0, -0.85, -1.75, -2.69, -3.6, -3.4, -3.55, -3.91, -4.14, -3.77, -4.2, -5.46, -5.46, -6.24, -5.9, -5.9, -5.9, -5.06, -4.4, -2.47, -1.84, -1.84, -2.99, -4.89, -5.95, -6.21, -6.6, -6.6, -5.69, -4.68, -4.58, -3.91, -4.29, -3.72, -2.8, -2.68, -3.13, -4.92, -6.71, -8.44, -8.56, -8.48, -8.14, -8.8, -10.25, -11.14, -11.36, -10.0, -7.95, -6.24, -4.6, -2.4, -0.78, 0.0, 0.0, 0.0, 0.0, -1.05, -4.92, -6.99, -8.48, -9.49, -6.3, -5.31, -4.6, -4.11, -3.87, -3.53, -3.13, -2.68, -2.68, -2.68, -2.68, -2.17, -1.34, 0.0, -0.0, -0.0, -0.0, -0.45, -0.45, 0.0, 0.0, 0.0, 0.45, 0.45, 0.89, 0.89, 0.63, 0.57, 1.61, 3.14, 6.71, 4.26, 3.36, 3.36, 1.68, 0.89, -0.0, -0.89, -1.65, -2.67, -2.82, -2.64, -2.8, -2.2, -0.0, -0.0, -0.0, -1.84, -3.2, -4.6, -4.71, -4.12, -3.4, -2.47, -1.4, -1.49, -2.69, -2.99, -3.79, -6.0, -6.6, -7.2, -7.2, -7.2, -7.15, -6.95, -6.32, -5.69, -4.74, -4.98, -4.4, -4.47, -4.34, -5.4, -6.94, -8.29, -8.56, -8.06, -7.71, -7.71, -8.36, -10.14, -10.49, -10.89, -9.42, -7.68, -6.53, -4.37, -3.09, -1.63, -1.52, -0.78, 0.0, 0.0, -2.48, -5.94, -8.06, -9.06, -6.51, -5.81, -5.09, -4.19, -3.87, -3.53, -3.13, -3.13, -2.68, -2.68, -2.68, -2.24, -1.79, -0.89, 0.0, -0.0, -0.45, -0.45, -0.45, -0.45, -0.45, 0.0, 0.0, 0.0, 0.0, 0.0, 0.45, 1.7, 2.63, 3.98, 5.78, 6.45, 2.82, 1.84, 1.73, 0.89, -0.0, -0.0, -0.0, -0.0, -0.0, -0.0, -0.0, 2.84, 4.47, 5.36, 4.34, 4.8, 4.47, 4.02, -0.0, 3.16, 4.4, 5.36, 5.81, 3.13, -0.0, -6.01, -7.28, -6.88, -7.63, -9.04, -9.45, -9.45, -8.8, -7.76, -6.24, -5.69, -5.69, -5.6, -5.94, -6.26, -6.64, -7.37, -8.29, -8.77, -8.77, -8.33, -8.06, -7.63, -8.06, -8.99, -9.58, -9.58, -10.01, -9.42, -8.12, -6.18, -4.83, -3.2, -2.26, -2.26, -2.12, -0.89, -0.76, -4.77, -7.85, -9.21, -7.01, -5.6, -5.31, -4.6, -4.11, -3.87, -3.53, -3.13, -3.13, -3.13, -3.13, -2.68, -2.24, -1.34, -0.89, -0.45, -0.89, -0.89, -0.89, -0.89, -0.89, -0.63, -0.32, -0.0, -0.0, 0.63, 1.7, 3.82, 5.09, 6.04, 6.94, 6.68, 7.01, 3.47, 3.22, 1.84, 1.84, 1.08, 1.7, 1.08, 1.08, 2.2, 3.16, 4.0, 4.92, 5.36, 5.51, 6.07, 6.07, 6.0, 6.0, 6.51, 6.71, 7.15, 6.51, 5.72, 4.8, -2.76, -7.67, -9.46, -8.9, -9.46, -8.91, -7.06, -6.36, -4.8, -3.16, -4.11, -6.08, -7.2, -6.45, -7.15, -8.45, -9.24, -9.68, -9.79, -9.35, -8.77, -7.85, -7.63, -7.53, -7.35, -8.14, -8.4, -9.08, -9.77, -8.8, -7.82, -5.77, -4.42, -4.26, -3.69, -3.2, -2.35, -1.96, -7.15, -8.9, -8.9, -7.2, -6.1, -5.4, -4.8, -4.19, -3.87, -3.53, -3.53, -3.53, -3.13, -3.13, -3.13, -2.68, -2.24, -1.34, -0.89, -0.89, -0.89, -0.89, -0.89, -0.8, -0.63, -0.4, -0.0, 0.42, 1.58, 3.09, 4.84, 6.28, 6.8, 7.31, 7.51, 5.7, 6.51, 6.51, 3.6, 1.27, 1.08, 1.7, 1.7, 2.0, 2.23, 2.0, 4.0, 4.0, 4.92, 4.92, 5.36, 5.81, 5.81, 5.64, 6.07, 6.51, 6.07, 5.51, 5.21, 5.21, 3.58, -8.0, -11.03, -9.68, -7.06, -2.0, 3.6, 5.36, 5.94, 3.79, 3.47, -4.4, -6.51, -4.77, -4.47, -8.0, -10.7, -10.73, -10.28, -9.39, -8.49, -7.55, -7.37, -7.12, -6.8, -7.76, -8.3, -8.72, -7.82, -7.76, -7.53, -7.12, -6.18, -5.69, -4.65, -3.9, -3.2, -3.47, -6.51, -8.49, -8.49, -7.31, -6.4, -5.6, -5.31, -4.6, -4.11, -3.87, -3.87, -3.53, -3.53, -3.58, -3.58, -3.13, -2.68, -2.24, -1.79, -1.34, -1.34, -1.34, -1.34, -1.2, -0.95, -0.57, -0.0, 0.53, 2.23, 3.16, 3.79, 5.29, 5.78, 6.15, 6.7, 6.8, 8.63, 7.21, 6.02, 3.93, 3.79, 3.22, 3.79, 3.79, 3.35, 3.48, 2.84, 4.4, 5.36, 5.36, 5.36, 5.36, 5.36, 5.36, 5.09, 5.51, 4.84, 4.11, 3.79, 3.22, 4.11, -4.4, -9.6, -9.03, -2.0, 5.09, 6.26, 5.81, 4.92, 5.58, 5.06, 0.0, 0.0, 2.4, 3.16, -1.9, -9.8, -11.51, -11.05, -9.7, -8.49, -7.6, -7.55, -7.63, -7.76, -8.21, -8.55, -8.8, -7.82, -6.18, -6.88, -6.7, -6.55, -5.77, -5.43, -5.43, -5.06, -5.37, -6.28, -8.49, -8.49, -7.48, -6.8, -6.1, -5.6, -4.9, -4.6, -4.11, -3.87, -3.87, -3.98, -3.54, -3.54, -3.53, -3.13, -3.13, -2.24, -2.24, -2.24, -2.24, -1.79, -1.34, -0.89, -0.95, -0.53, 0.59, 1.6, 2.23, 2.6, 4.12, 5.06, 5.06, 5.65, 5.98, 5.65, 6.41, 7.44, 6.82, 6.08, 4.74, 5.58, 6.0, 6.07, 5.51, 5.51, 5.36, 5.36, 5.36, 4.92, 4.92, 4.92, 4.92, 4.92, 4.4, 3.48, 3.48, 1.7, 1.84, 1.7, -4.47, -8.0, -6.0, -0.0, 4.4, 4.92, 4.92, 4.02, 3.72, 3.22, 3.22, 4.8, 6.51, 6.88, 6.17, -5.6, -11.61, -11.79, -11.11, -10.14, -8.94, -8.45, -8.99, -9.66, -9.9, -9.6, -8.8, -7.44, -6.45, -6.0, -6.57, -7.12, -7.12, -6.8, -6.07, -6.44, -6.18, -7.12, -8.46, -8.46, -8.0, -7.08, -6.28, -6.0, -5.31, -4.8, -4.6, -4.11, -4.3, -3.87, -3.98, -3.98, -3.98, -3.54, -3.13, -4.02, -2.68, -3.13, -2.68, -2.24, -0.89, 0.0, 0.0, 1.08, 0.89, 2.82, 2.23, 4.16, 4.68, 4.12, 4.12, 4.47, 4.47, 5.08, 5.08, 5.08, 5.06, 4.71, 5.15, 5.72, 5.4, 5.7, 6.26, 6.26, 6.07, 5.36, 4.92, 4.92, 4.92, 4.92, 4.92, 4.92, 4.0, 4.0, 2.2, 2.2, 0.0, 0.0, -4.92, -5.72, -2.2, 2.84, 4.02, 3.13, 4.02, 3.9, 3.82, 3.16, 2.95, 4.74, 5.95, 5.94, 6.17, -0.0, -10.68, -12.8, -13.23, -12.53, -11.59, -10.7, -11.11, -11.37, -11.61, -10.75, -10.18, -9.36, -7.81, -6.44, -6.57, -6.7, -7.81, -7.85, -7.63, -7.35, -7.6, -8.06, -8.77, -8.77, -8.0, -7.48, -6.8, -6.28, -5.6, -5.31, -4.8, -4.6, -4.19, -4.34, -3.98, -3.98, -3.98, -3.87, -3.07, -1.34, -2.68, -2.68, -2.68, -0.0, -0.0, 1.2, 1.7, 3.63, 2.82, 2.64, 2.82, 2.82, 2.82, 2.8, 3.22, 3.45, 3.45, 3.45, 3.45, 3.45, 3.47, 3.49, 2.86, 2.84, 3.07, 3.53, 3.58, 3.87, 4.0, 4.84, 4.47, 4.4, 4.92, 5.36, 4.92, 4.92, 4.92, 4.4, 3.72, 2.23, 0.0, -0.99, -4.02, -5.21, -0.0, 2.84, 4.02, 4.47, 4.47, 4.34, 4.0, 3.16, 2.95, 2.6, 2.82, 2.67, 3.0, 1.6, -8.33, -12.53, -13.23, -13.23, -12.52, -11.96, -11.61, -11.33, -10.89, -11.05, -10.41, -8.91, -7.6, -6.44, -5.82, -6.4, -7.12, -8.29, -8.29, -8.06, -7.89, -8.48, -8.77, -8.77, -8.15, -7.23, -6.95, -6.67, -5.75, -5.47, -5.08, -4.8, -4.6, -4.6, -4.34, -4.34, -4.34, -4.34, -3.39, -2.17, -2.68, -2.17, 0.45, 2.2, 1.84, 1.61, 2.23, 2.22, 1.73, 1.55, 1.7, 1.7, 2.36, 2.32, 2.32, 2.8, 2.8, 2.8, 3.04, 2.82, 2.4, 2.2, 2.22, 2.51, 2.53, 2.91, 3.53, 4.02, 4.19, 6.0, 4.92, 5.09, 5.51, 5.81, 5.81, 5.36, 5.36, 5.09, 4.84, 3.35, 0.0, -1.2, -4.92, -4.4, -0.0, 0.0, 3.58, 4.47, 4.02, 3.9, 4.0, 3.48, 2.95, 1.84, 0.89, -0.89, -1.84, -1.13, -6.71, -11.06, -10.75, -11.36, -12.04, -12.07, -11.14, -10.25, -9.83, -9.36, -9.68, -9.06, -8.3, -7.03, -7.03, -6.07, -6.6, -7.37, -8.0, -7.89, -7.89, -7.47, -8.36, -8.36, -8.15, -7.76, -7.48, -6.56, -6.28, -5.75, -5.47, -5.08, -4.9, -4.6, -4.77, -4.77, -4.77, -4.77, -3.87, -2.91, -2.63, -1.7, 0.45, 0.99, -0.0, -0.0, 0.59, 0.57, 0.55, 1.07, 1.16, 1.7, 1.67, 2.16, 2.16, 2.16, 2.16, 2.36, 2.36, 2.4, 2.2, 2.44, 2.22, 2.23, 2.84, 2.79, 3.82, 4.43, 4.89, 4.77, 5.36, 4.84, 6.07, 6.71, 6.71, 6.26, 5.81, 5.51, 4.84, 4.46, 0.0, -3.13, -4.47, -3.58, 0.0, 0.0, 2.68, 3.58, 3.58, 3.82, 3.35, 3.16, 2.95, 3.0, 1.73, -4.11, -4.77, -4.98, -9.83, -8.91, -7.42, -6.51, -7.6, -8.94, -10.28, -9.81, -9.8, -10.28, -9.79, -9.24, -8.99, -8.72, -8.14, -7.03, -6.44, -6.28, -7.15, -7.56, -7.71, -7.47, -8.56, -8.56, -8.43, -8.43, -8.15, -6.95, -6.56, -6.28, -5.75, -5.47, -5.08, -4.9, -5.09, -4.8, -4.8, -4.8, -4.34, -3.82, -3.07, -1.7, 0.0, -0.0, -0.0, -0.0, -0.0, 0.57, 0.55, 0.54, 1.16, 1.16, 1.67, 1.67, 2.36, 2.36, 2.36, 2.36, 2.4, 2.4, 2.44, 2.22, 2.48, 2.23, 2.84, 3.14, 3.6, 3.87, 4.92, 4.92, 6.07, 6.0, 6.58, 7.15, 7.15, 6.71, 6.71, 6.26, 6.07, 5.6, 2.53, -3.13, -5.36, -3.13, -1.9, 0.0, 2.68, 3.58, 4.02, 3.72, 3.72, 3.16, 2.0, 1.99, 3.47, 0.0, -4.74, -7.94, -9.39, -7.56, -4.47, -2.68, -3.13, -4.85, -7.6, -10.14, -10.6, -10.7, -10.73, -10.14, -9.97, -10.18, -9.66, -8.99, -7.03, -6.0, -6.65, -7.6, -7.89, -7.89, -7.89, -7.89, -8.43, -8.43, -8.27, -7.35, -6.95, -6.41, -6.28, -5.75, -5.6, -5.08, -5.51, -5.09, -5.09, -5.09, -4.8, -4.34, -3.53, -2.6, -1.34, -0.95, -0.54, -0.0, -0.0, -0.0, 0.55, 0.61, 1.16, 1.16, 1.84, 1.84, 2.36, 2.36, 2.36, 2.4, 2.4, 2.44, 2.44, 2.48, 2.23, 2.51, 2.23, 2.23, 2.79, 3.6, 4.11, 4.77, 7.01, 7.01, 7.01, 7.15, 7.6, 7.15, 7.15, 7.15, 6.58, 6.51, 4.98, 2.21, -4.92, -5.81, -4.02, 0.0, 3.13, 4.02, 4.34, 4.0, 4.4, 3.79, 2.0, 0.96, 0.96, -0.0, -4.42, -6.57, -8.85, -8.6, -5.21, 0.0, 2.84, 0.0, -4.85, -8.46, -10.05, -10.63, -11.18, -11.14, -11.05, -10.41, -9.49, -8.9, -7.63, -6.28, -5.75, -6.71, -7.89, -7.89, -7.98, -7.98, -8.82, -8.82, -8.43, -7.9, -7.61, -7.07, -6.41, -6.03, -5.75, -5.6, -5.81, -5.57, -5.57, -5.57, -5.24, -4.8, -3.98, -3.09, -2.24, -1.86, -0.54, -0.0, -0.0, -0.0, 0.55, 0.61, 1.07, 1.7, 1.7, 1.84, 2.36, 2.36, 2.18, 2.84, 2.84, 2.86, 2.6, 2.48, 2.51, 2.23, 2.21, 1.88, 2.23, 2.84, 3.72, 4.27, 4.11, 4.3, 4.3, 4.44, 4.92, 7.6, 7.6, 7.6, 7.01, 6.26, 6.71, 5.29, 4.4, 0.0, 0.0, 2.24, 4.02, 4.47, 4.34, 4.4, 4.29, 3.22, 2.2, 0.0, 0.96, -0.0, -5.59, -7.12, -8.0, -7.76, -5.06, -1.99, 0.0, 1.27, -2.21, -6.71, -9.26, -9.72, -9.8, -9.83, -9.8, -9.79, -8.9, -8.05, -8.49, -6.51, -6.07, -7.1, -7.45, -7.89, -7.98, -7.98, -8.55, -8.55, -8.55, -8.27, -7.9, -7.23, -6.7, -6.41, -6.03, -5.89, -6.0, -5.81, -5.99, -5.99, -5.7, -5.24, -4.89, -3.98, -3.13, -2.0, -1.2, -0.0, -0.0, -0.0, 0.55, 0.61, 1.07, 1.7, 1.7, 1.7, 2.18, 2.18, 2.84, 2.84, 2.84, 2.86, 3.15, 2.86, 2.84, 2.79, 2.5, 2.15, 1.88, 2.51, 2.86, 3.43, 3.88, 4.11, 4.3, 4.34, 4.8, 5.33, 8.05, 8.49, 7.94, 7.15, 6.26, 6.71, 6.71, 5.51, 4.8, 4.8, 4.02, 4.47, 4.77, 4.98, 4.29, 4.11, 0.96, 0.0, 0.0, -4.02, -4.58, -7.53, -8.49, -8.48, -6.7, -4.83, -3.0, 0.0, 0.0, -4.92, -7.89, -7.89, -7.56, -8.49, -8.49, -8.94, -8.94, -8.49, -8.94, -7.56, -6.98, -6.98, -7.89, -8.56, -8.4, -8.4, -9.1, -9.1, -8.55, -8.18, -7.9, -7.61, -7.23, -6.7, -6.41, -6.03, -6.28, -6.1, -6.3, -6.47, -6.04, -5.7, -5.26, -4.88, -4.02, -2.49, -1.2, -0.61, -0.0, -0.0, -0.0, 0.61, 1.07, 1.7, 1.7, 1.7, 2.18, 2.18, 2.84, 2.84, 2.84, 3.49, 3.2, 3.48, 3.78, 3.88, 4.11, 3.98, 3.07, 1.6, 2.22, 3.48, 4.27, 4.11, 4.34, 4.77, 4.8, 5.24, 5.24, 5.81, 8.05, 7.6, 7.15, 6.71, 5.81, 4.82, 4.46, 4.0, 5.36, 4.92, 5.64, 4.8, 4.11, 2.99, 0.88, 0.0, 0.0, -1.9, -4.89, -7.2, -8.44, -8.77, -8.43, -7.33, -5.24, -3.0, -0.96, -2.98, -5.81, -6.21, -5.81, -5.75, -7.54, -8.29, -8.9, -9.35, -8.94, -9.39, -8.45, -8.44, -7.92, -8.19, -8.4, -8.4, -9.1, -9.1, -8.55, -8.55, -8.27, -7.9, -7.61, -7.23, -6.7, -6.56, -6.8, -6.51, -6.72, -6.36, -6.47, -6.16, -5.7, -5.33, -4.47, -3.09, -1.9, -1.16, -0.59, -0.0, -0.0, 0.55, 1.07, 1.16, 1.7, 1.7, 2.18, 2.18, 2.84, 2.84, 2.84, 3.49, 3.49, 3.48, 4.0, 4.27, 4.6, 4.77, 4.47, 2.4, 1.13, 1.73, 3.49, 4.4, 4.6, 4.77, 4.8, 5.24, 5.24, 5.26, 5.78, 7.6, 7.6, 7.15, 6.2, 5.51, 4.57, 4.34, 4.92, 5.29, 4.98, 5.6, 4.74, 2.8, 1.03, 0.0, 0.0, -1.6, -4.8, -7.2, -8.44, -8.33, -8.8, -9.77, -8.4, -6.18, -2.99, -0.57, -0.95, -3.58, -3.58, -3.9, -5.59, -8.29, -8.77, -9.39, -9.39, -9.39, -9.39, -8.49, -8.46, -8.82, -8.67, -8.67, -9.1, -9.1, -8.93, -8.55, -8.18, -7.9, -7.9, -7.61, -7.23, -7.07, -6.95, -6.8, -6.6, -6.79, -6.79, -6.51, -6.16, -5.7, -4.89, -3.58, -2.5, -1.61, -1.13, -0.0, -0.0, -0.0, 0.54, 1.16, 1.16, 1.7, 2.18, 2.18, 2.4, 2.84, 3.12, 3.49, 3.49, 3.73, 4.0, 4.0, 4.4, 5.02, 5.24, 6.26, 5.26, 2.51, 3.49, 4.93, 4.6, 4.6, 4.6, 5.24, 5.24, 5.24, 5.24, 5.33, 8.05, 8.49, 7.1, 6.45, 5.73, 4.92, 5.36, 5.7, 4.98, 4.89, 4.74, 2.8, 0.0, -1.98, -0.96, -1.13, -4.34, -6.36, -6.17, -4.02, -4.4, -7.63, -10.14, -8.14, -5.6, -1.24, 0.0, 0.0, -1.9, -2.97, -5.59, -7.37, -8.77, -8.9, -8.49, -8.49, -8.91, -9.39, -9.39, -9.26, -9.26, -9.26, -9.1, -9.1, -9.1, -8.93, -8.55, -8.27, -7.9, -7.35, -7.35, -7.35, -7.07, -7.31, -6.8, -7.01, -7.21, -6.94, -6.94, -6.16, -5.34, -4.47, -3.39, -2.21, -1.88, -1.13, -0.57, -0.0, -0.0, 0.59, 1.16, 1.7, 1.7, 2.4, 2.4, 2.84, 3.12, 3.49, 3.48, 3.73, 4.0, 4.0, 4.4, 4.4, 5.09, 5.7, 5.36, 5.51, 5.58, 4.8, 4.6, 4.6, 4.6, 4.6, 4.8, 4.8, 4.89, 5.24, 5.33, 5.81, 8.0, 7.54, 6.64, 5.73, 5.29, 4.98, 4.98, 4.98, 5.21, 4.74, 0.0, -3.22, -1.08, 0.0, -3.13, -4.92, -2.21, 4.4, 5.81, 0.0, -8.0, -9.83, -7.6, -2.17, -0.54, 0.0, 0.0, -1.2, -4.38, -6.21, -7.11, -7.15, -6.71, -7.15, -8.01, -10.25, -9.83, -9.81, -9.72, -9.72, -9.48, -9.48, -8.84, -8.65, -8.55, -8.18, -8.27, -7.9, -7.72, -7.35, -7.35, -7.23, -7.31, -7.31, -7.51, -7.26, -7.4, -6.61, -6.23, -4.92, -3.98, -3.39, -2.21, -1.61, -1.13, -0.57, -0.55, -0.0, 0.59, 1.16, 1.73, 2.2, 2.2, 2.86, 2.86, 3.2, 3.48, 3.73, 4.0, 4.0, 4.27, 4.27, 4.4, 5.02, 5.09, 6.45, 6.16, 4.6, 4.11, 4.6, 4.6, 4.6, 4.8, 4.8, 5.33, 5.33, 5.78, 5.78, 6.26, 7.55, 6.94, 5.94, 4.98, 4.6, 4.6, 4.22, 4.22, 4.46, 2.84, 0.0, 1.9, 3.35, 0.0, -3.2, -0.0, 5.49, 7.12, 6.26, -2.21, -8.94, -8.46, -5.81, -1.86, -0.61, 0.0, 0.0, 0.0, -4.02, -5.75, -5.81, -5.81, -5.81, -7.55, -8.82, -10.26, -10.28, -10.26, -10.26, -9.21, -9.21, -9.21, -8.84, -8.93, -8.55, -8.43, -8.27, -7.9, -7.72, -7.72, -7.35, -7.23, -7.71, -7.51, -7.51, -7.69, -7.4, -6.61, -6.16, -5.36, -3.98, -3.32, -2.21, -1.61, -1.16, -0.51, -0.0, 0.89, 1.07, 1.73, 1.73, 2.44, 2.86, 2.86, 3.48, 3.48, 3.48, 4.0, 3.64, 3.88, 3.72, 3.88, 3.88, 4.27, 3.88, 3.87, 3.87, 3.87, 4.11, 4.6, 5.02, 5.24, 5.24, 5.33, 5.26, 5.78, 5.78, 5.81, 5.78, 7.37, 6.16, 4.6, 4.22, 4.6, 4.4, 4.4, 4.46, 3.48, 4.4, 3.82, 4.4, 1.98, 0.0, -0.0, 2.82, 4.89, 5.81, 4.34, -4.92, -8.14, -6.79, -5.36, -2.15, -1.13, 0.0, 0.0, 0.0, -4.77, -4.92, -4.92, -4.92, -6.65, -8.36, -9.81, -9.83, -10.28, -10.28, -9.21, -9.21, -9.21, -9.21, -8.65, -8.55, -8.55, -8.27, -8.27, -7.64, -7.44, -7.72, -7.61, -8.0, -7.81, -8.0, -8.0, -8.0, -7.69, -6.94, -6.16, -4.92, -3.53, -2.91, -2.15, -1.2, -0.0, 1.13, 1.11, 0.89, 1.08, 1.76, 2.22, 2.22, 2.86, 3.48, 3.48, 3.78, 4.0, 3.72, 3.35, 3.14, 3.14, 3.35, 3.35, 3.6, 3.39, 3.39, 3.82, 3.87, 4.77, 4.8, 5.24, 5.24, 4.89, 4.89, 5.33, 5.78, 5.81, 5.81, 5.7, 5.6, 5.6, 4.57, 4.98, 4.98, 4.57, 4.4, 4.11, 4.11, 3.72, 2.48, 0.96, 0.96, 3.13, 2.16, 2.99, 4.4, 4.47, -1.58, -6.8, -6.94, -6.51, -5.36, -2.15, -1.6, -0.55, 0.0, -1.99, -5.26, -5.36, -4.47, -5.81, -7.56, -8.91, -9.8, -9.83, -9.83, -9.21, -9.21, -9.21, -9.21, -8.84, -8.93, -8.55, -8.18, -8.0, -8.0, -8.0, -7.64, -7.9, -7.76, -8.0, -8.22, -8.3, -8.42, -8.0, -7.26, -6.51, -5.78, -4.47, -3.53, -2.49, -1.24, -0.0, 0.59, 1.23, 1.08, 1.23, 1.76, 2.22, 2.48, 2.86, 2.86, 3.16, 3.78, 3.43, 3.72, 3.6, 2.68, 2.21, 2.23, 3.14, 3.6, 3.39, 3.39, 3.53, 3.98, 4.44, 4.89, 4.89, 4.89, 4.88, 4.92, 4.92, 5.36, 5.36, 5.36, 7.63, 6.64, 5.6, 5.51, 4.82, 4.82, 4.82, 4.98, 5.51, 4.11, 3.48, 1.84, 0.0, 0.0, 2.4, 3.58, -0.0, 1.08, 2.98, -0.0, -4.84, -6.64, -6.7, -6.21, -4.92, -1.58, -1.27, -1.07, -2.47, -3.93, -5.36, -5.36, -5.36, -7.11, -8.46, -9.36, -9.83, -9.83, -9.21, -9.21, -9.21, -9.21, -9.21, -8.65, -8.55, -8.55, -8.18, -8.0, -8.0, -8.0, -7.9, -7.9, -8.15, -8.51, -8.51, -8.3, -8.48, -8.0, -7.26, -6.04, -5.33, -4.02, -3.07, -1.86, -0.54, -0.0, -0.0, 0.59, 1.11, 1.8, 1.8, 2.23, 2.51, 3.16, 3.43, 3.43, 3.72, 3.35, 3.39, 3.07, 2.15, 1.84, 2.84, 3.35, 3.39, 3.53, 3.58, 4.02, 4.47, 4.92, 4.92, 4.88, 4.88, 4.92, 4.92, 4.92, 4.92, 4.89, 5.24, 6.52, 5.36, 4.84, 5.09, 5.09, 4.34, 4.4, 4.0, 3.16, 2.68, 1.84, 0.0, 0.0, 1.05, 0.96, -2.68, -2.4, -0.0, -0.0, -3.84, -6.0, -6.28, -6.07, -5.29, -2.17, -2.21, -3.91, -3.63, -3.93, -4.82, -5.36, -5.81, -6.71, -8.01, -8.91, -9.39, -9.39, -9.76, -9.76, -9.21, -9.21, -9.21, -8.65, -8.93, -8.55, -8.55, -8.37, -8.37, -8.0, -8.0, -8.0, -8.27, -8.28, -8.51, -8.51, -8.72, -8.22, -7.58, -6.79, -6.14, -4.89, -3.58, -2.63, -1.58, -0.54, -0.0, -0.0, 0.61, 1.13, 1.84, 2.23, 2.23, 2.84, 2.84, 3.72, 3.72, 3.6, 3.82, 3.58, 2.68, 1.88, 2.48, 3.72, 3.82, 3.98, 4.02, 4.47, 4.92, 4.92, 4.92, 4.92, 4.47, 4.47, 4.47, 4.92, 4.92, 4.89, 5.24, 4.8, 5.72, 3.93, 4.4, 5.09, 4.0, 3.72, 3.16, 3.16, 3.22, 2.2, 1.52, 0.0, 0.0, 0.0, -2.21, -3.93, -3.22, -2.68, -3.58, -5.75, -6.28, -6.07, -5.59, -4.92, -4.98, -4.98, -4.11, -3.93, -4.77, -5.36, -5.81, -6.71, -7.15, -8.05, -9.39, -9.39, -9.76, -9.76, -9.58, -9.21, -9.21, -8.84, -8.93, -8.55, -8.55, -8.55, -8.08, -8.08, -8.08, -8.0, -8.0, -8.43, -8.68, -8.68, -8.51, -8.72, -8.22, -7.51, -6.79, -5.7, -4.44, -3.58, -2.6, -1.58, -0.57, -0.0, 0.65, 1.2, 1.88, 1.88, 2.21, 2.53, 2.79, 3.35, 3.35, 3.6, 3.82, 4.02, 3.98, 3.9, 2.51, 3.43, 4.11, 4.43, 4.47, 4.47, 4.92, 4.92, 4.89, 4.88, 4.47, 4.47, 4.47, 4.47, 4.88, 4.77, 5.24, 4.9, 4.74, 4.29, 3.93, 4.46, 4.0, 3.72, 3.35, 3.16, 2.0, 2.2, 1.63, 0.0, -0.0, 2.53, 2.8, -1.27, -3.72, -3.47, -3.84, -5.34, -6.28, -6.51, -6.02, -5.81, -5.29, -4.6, -4.29, -3.93, -4.34, -4.92, -5.36, -6.26, -7.15, -7.6, -8.49, -8.94, -9.76, -9.76, -9.58, -9.3, -9.21, -9.21, -8.65, -8.93, -8.55, -8.55, -8.29, -8.08, -8.08, -8.08, -8.0, -8.27, -8.43, -8.68, -8.68, -8.51, -8.0, -7.81, -6.8, -6.3, -5.09, -4.44, -3.13, -2.24, -1.2, -0.0, 0.8, 0.99, 1.58, 1.9, 2.15, 2.5, 2.68, 3.07, 3.2, 3.2, 3.39, 3.98, 4.47, 5.36, 3.32, 3.43, 4.11, 4.44, 4.47, 4.44, 4.88, 4.88, 4.44, 4.44, 4.47, 4.47, 4.47, 4.47, 4.88, 4.77, 5.09, 5.31, 6.08, 3.93, 4.0, 5.09, 4.84, 4.0, 3.72, 3.16, 2.48, 1.84, 1.52, 1.9, 1.98, 2.82, 4.43, 2.16, -1.72, -3.9, -4.84, -6.02, -6.51, -6.51, -6.02, -5.81, -5.29, -4.6, -4.6, -4.4, -4.34, -4.47, -4.92, -5.36, -6.26, -7.15, -8.05, -8.49, -9.76, -9.76, -9.58, -9.3, -8.94, -9.21, -8.65, -8.65, -8.55, -8.29, -8.29, -8.08, -8.08, -8.08, -8.08, -8.0, -8.27, -8.43, -8.43, -8.68, -8.28, -8.0, -7.48, -6.8, -6.0, -4.9, -3.87, -2.63, -1.79, -0.45, -0.0, 0.63, 1.6, 1.86, 1.86, 2.4, 2.8, 2.91, 3.07, 3.32, 3.32, 3.39, 3.98, 4.47, 5.81, 3.7, 4.11, 3.98, 4.02, 4.43, 4.44, 4.44, 4.43, 4.02, 4.02, 4.02, 4.02, 4.47, 4.44, 4.77, 4.77, 4.9, 4.0, 4.43, 4.4, 5.09, 4.4, 3.93, 3.93, 3.48, 2.2, 0.96, 1.52, 2.2, 1.98, 1.75, 2.67, 1.84, -0.0, -3.47, -4.54, -5.51, -6.02, -5.86, -6.07, -5.81, -5.31, -5.51, -4.6, -4.4, -4.34, -4.47, -4.92, -5.36, -5.81, -7.15, -8.05, -8.05, -9.76, -9.76, -9.58, -9.3, -8.94, -9.21, -8.65, -8.65, -8.65, -8.65, -8.65, -8.44, -8.08, -7.81, -8.08, -8.08, -8.0, -8.27, -8.43, -8.43, -7.9, -8.15, -7.61, -6.95, -6.03, -5.21, -4.17, -3.35, -2.4, -1.2, 0.0, 0.0, 0.89, 1.34, 1.7, 2.12, 2.6, 2.4, 2.91, 2.91, 2.91, 2.91, 3.07, 3.53, 4.02, 5.81, 3.87, 3.53, 3.58, 4.02, 4.02, 4.02, 4.02, 4.02, 4.02, 4.02, 4.02, 4.02, 4.43, 4.34, 4.77, 5.09, 7.06, 6.0, 5.09, 4.4, 3.72, 3.79, 3.48, 2.2, 1.99, 0.96, 1.98, 3.47, 4.92, 1.73, 1.84, 0.89, -0.0, -2.99, -4.19, -5.09, -5.51, -5.59, -6.21, -6.26, -6.2, -5.94, -4.98, -4.57, -4.82, -4.92, -4.92, -5.36, -5.81, -7.15, -8.05, -8.05, -9.76, -9.76, -9.3, -9.3, -8.94, -9.21, -9.01, -8.65, -8.65, -8.65, -8.65, -8.44, -8.15, -8.15, -7.81, -8.08, -8.0, -8.0, -8.0, -8.27, -8.27, -7.9, -7.35, -7.07, -6.51, -5.86, -4.71, -3.48, -2.23, -1.2, -0.57, 0.0, 0.63, 1.34, 1.34, 1.79, 2.24, 2.17, 2.6, 2.63, 2.63, 2.63, 3.07, 3.07, 3.53, 3.58, 3.58, 3.13, 3.58, 3.58, 3.58, 3.58, 3.58, 3.58, 3.58, 4.02, 4.02, 4.02, 3.98, 4.43, 4.3, 4.6, 4.8, 5.72, 4.84, 3.48, 3.48, 3.79, 2.2, 1.99, 1.99, 2.95, 3.22, 3.48, 5.94, 5.21, 1.84, -0.0, -1.03, -2.99, -3.48, -4.22, -4.66, -5.29, -5.75, -6.71, -6.64, -6.02, -5.51, -4.98, -5.26, -4.92, -4.92, -5.81, -7.15, -7.6, -7.6, -7.6, -9.76, -9.76, -9.3, -9.3, -9.3, -8.94, -9.01, -8.65, -8.65, -8.65, -8.65, -8.44, -8.15, -8.15, -7.81, -7.81, -8.08, -8.0, -8.0, -8.0, -8.0, -7.44, -7.44, -7.15, -6.57, -5.65, -5.01, -4.11, -2.86, -1.6, -1.0, 0.0, 0.0, 0.6, 1.2, 1.2, 1.79, 2.24, 2.24, 2.24, 2.24, 2.68, 2.68, 2.63, 3.07, 3.13, 3.13, 3.13, 3.13, 3.13, 3.13, 3.58, 3.58, 3.58, 3.58, 3.58, 3.97, 3.98, 3.98, 3.98, 3.87, 4.3, 4.11, 5.72, 5.36, 4.11, 2.98, 2.98, 1.83, 2.16, 2.2, 3.16, 4.0, 4.0, 4.82, 4.92, 3.48, -0.0, -1.84, -3.22, -3.79, -3.83, -4.15, -4.85, -5.36, -6.2, -6.64, -6.45, -5.51, -4.98, -5.26, -5.36, -5.36, -6.26, -6.71, -7.6, -7.6, -7.6, -9.76, -9.76, -9.3, -9.3, -9.3, -8.94, -8.73, -8.65, -8.65, -8.65, -8.65, -8.15, -8.15, -8.15, -7.81, -7.81, -7.55, -7.51, -7.8, -7.44, -7.44, -7.44, -7.44, -6.87, -6.28, -5.69, -5.06, -3.84, -2.84, -2.22, -1.27, -0.61, 0.0, 0.0, 0.57, 1.26, 1.6, 1.79, 2.24, 2.24, 2.24, 2.24, 2.24, 2.68, 2.68, 2.68, 3.13, 3.13, 3.13, 3.13, 3.13, 3.13, 3.13, 3.58, 3.58, 3.53, 3.53, 3.53, 3.53, 3.97, 3.97, 3.82, 3.7, 3.88, 6.08, 4.02, 3.22, 2.2, 1.99, 2.2, 4.11, 3.35, 4.0, 4.34, 4.34, 4.34, 4.02, -0.0, -2.8, -3.91, -4.89, -4.22, -4.57, -5.36, -5.81, -5.75, -6.02, -6.45, -5.94, -4.98, -5.51, -5.36, -5.73, -6.26, -6.71, -7.1, -7.1, -7.1, -9.5, -9.5, -9.3, -9.3, -9.3, -8.94, -8.73, -9.01, -8.65, -8.65, -8.65, -8.15, -8.15, -8.15, -7.81, -7.55, -7.55, -7.23, -7.51, -7.51, -7.44, -6.92, -6.92, -6.32, -6.01, -5.69, -5.08, -3.85, -3.47, -2.4, -1.76, -1.11, 0.0, 0.0, 0.54, 0.71, 1.26, 1.7, 1.7, 1.7, 1.79, 2.24, 2.24, 2.68, 2.68, 2.68, 3.13, 3.13, 3.13, 3.13, 3.13, 3.13, 3.13, 3.13, 3.07, 3.07, 3.07, 3.53, 3.53, 3.53, 3.39, 3.82, 3.6, 3.88, 3.79, 4.29, 2.6, 2.95, 2.95, 3.48, 3.72, 3.72, 3.72, 3.35, 3.35, 2.23, 2.23, 2.24, -2.48, -4.11, -4.89, -5.6, -5.94, -5.31, -5.81, -6.2, -6.02, -5.75, -5.94, -6.07, -5.81, -5.36, -6.17, -6.26, -6.71, -7.08, -7.08, -7.08, -9.5, -9.5, -9.3, -9.3, -9.3, -8.94, -8.73, -8.73, -8.65, -8.65, -8.44, -8.15, -7.81, -7.81, -7.55, -7.55, -7.55, -7.55, -7.23, -7.51, -6.92, -6.92, -6.59, -6.32, -5.71, -5.41, -4.47, -4.1, -3.45, -2.82, -1.88, -1.08, -0.57, 0.0, 0.0, 0.65, 0.71, 1.58, 1.86, 1.26, 1.6, 1.7, 2.12, 2.17, 2.68, 3.13, 3.13, 3.13, 3.07, 3.07, 3.07, 3.07, 3.13, 3.07, 3.07, 3.07, 3.07, 3.07, 3.07, 3.53, 3.39, 3.39, 3.6, 3.88, 3.73, 4.29, 3.22, 3.79, 3.22, 2.2, 3.16, 3.16, 3.16, 2.48, 2.48, 2.0, 1.27, 0.0, -2.21, -3.93, -4.98, -5.6, -6.0, -5.59, -5.81, -6.21, -6.51, -6.28, -6.36, -5.26, -4.82, -5.36, -6.26, -6.71, -6.71, -6.65, -6.65, -6.65, -9.3, -9.3, -9.3, -9.3, -8.94, -8.94, -8.73, -8.73, -8.38, -8.65, -8.15, -7.81, -7.81, -7.55, -7.55, -7.27, -7.27, -7.55, -7.23, -6.95, -6.92, -6.92, -6.32, -6.32, -5.71, -5.38, -4.73, -4.08, -3.45, -2.8, -2.36, -1.73, -0.55, 0.0, 0.0, 0.0, 0.65, 1.24, 1.24, 0.99, 1.26, 1.7, 2.12, 2.17, 2.6, 3.13, 3.07, 3.07, 3.07, 2.63, 2.63, 2.63, 2.63, 2.63, 3.07, 3.07, 3.07, 2.91, 2.91, 3.07, 2.91, 3.32, 3.2, 3.6, 4.0, 5.72, 4.43, 3.22, 3.22, 1.99, 1.05, 2.2, 2.2, 2.48, 2.0, 2.2, 2.0, 1.4, -2.68, -4.34, -4.8, -5.37, -5.58, -5.59, -6.26, -6.26, -6.51, -6.28, -5.59, -4.85, -4.98, -5.7, -6.26, -6.71, -6.71, -6.65, -6.65, -6.65, -9.3, -9.3, -9.3, -9.3, -8.94, -8.73, -8.73, -8.73, -8.38, -8.38, -8.15, -7.81, -7.81, -7.55, -7.27, -7.27, -7.27, -7.27, -6.95, -6.95, -6.95, -6.64, -6.32, -6.01, -5.71, -5.1, -4.73, -4.08, -3.42, -3.0, -2.16, -1.7, -1.19, -0.63, 0.0, 0.0, 0.53, 0.65, 0.65, 0.71, 0.99, 1.26, 1.86, 2.0, 2.6, 3.07, 3.07, 2.91, 2.4, 2.6, 2.6, 2.6, 2.6, 2.6, 2.6, 2.6, 2.91, 2.91, 2.91, 2.91, 2.91, 2.91, 3.32, 3.6, 3.72, 4.89, 4.43, 3.22, 1.99, 1.05, 0.88, 0.0, 2.0, 3.16, 3.48, 2.95, 3.22, 2.0, 0.0, -4.02, -4.34, -4.98, -6.0, -6.88, -6.71, -6.71, -6.51, -6.51, -6.02, -5.75, -5.09, -5.4, -5.51, -6.17, -6.64, -6.65, -6.65, -6.65, -9.3, -9.3, -9.3, -9.3, -8.94, -8.73, -8.73, -8.73, -8.38, -8.15, -8.15, -7.81, -7.81, -7.55, -7.27, -7.27, -6.97, -6.97, -6.67, -6.95, -6.95, -6.34, -6.32, -6.01, -5.71, -5.1, -4.73, -4.08, -3.42, -3.0, -2.32, -1.84, -1.7, -1.08, -0.57, 0.0, 0.0, 0.61, 0.53, 0.65, 0.54, 1.24, 1.86, 2.4, 2.6, 2.63, 2.4, 2.4, 2.4, 2.4, 2.6, 2.4, 2.4, 2.4, 2.6, 2.4, 2.4, 2.8, 2.8, 2.4, 2.8, 2.91, 2.91, 3.07, 3.35, 4.89, 4.74, 4.43, 4.11, 2.76, 2.16, 0.0, 0.0, 2.48, 3.48, 3.22, 3.22, 2.76, 1.19, -1.6, -3.58, -4.34, -5.7, -6.64, -8.0, -7.15, -6.51, -6.51, -6.07, -5.75, -5.59, -5.09, -4.8, -5.94, -5.94, -6.45, -6.45, -6.45, -9.3, -9.3, -9.3, -8.94, -8.94, -8.73, -8.73, -8.73, -8.38, -8.15, -8.15, -7.81, -7.55, -7.55, -7.27, -7.27, -6.97, -6.97, -6.67, -6.67, -6.35, -6.34, -6.04, -5.72, -5.71, -5.38, -4.73, -4.47, -3.84, -3.45, -2.8, -2.16, -1.7, -1.19, -0.55, 0.0, 0.0, 0.0, 0.0, 0.0, 0.65, 1.61, 1.9, 2.15, 2.4, 2.6, 2.4, 2.15, 2.4, 2.4, 2.4, 2.4, 2.4, 2.4, 2.4, 2.4, 2.4, 2.4, 2.15, 2.4, 2.4, 2.8, 2.8, 2.68, 3.07, 3.43, 4.74, 5.58, 4.89, 3.91, 3.91, 3.22, 2.23, 2.53, 2.23, 2.2, 2.76, 1.84, 0.96, 0.0, -2.8, -3.13, -3.13, -4.77, -7.71, -7.15, -6.66, -6.51, -6.02, -6.2, -5.75, -5.59, -5.94, -5.6, -5.94, -5.94, -5.94, -5.94, -9.3, -9.3, -9.3, -8.94, -8.73, -8.73, -8.73, -8.73, -8.38, -8.15, -8.15, -8.15, -7.55, -7.27, -7.27, -6.97, -6.97, -6.97, -6.67, -6.35, -6.35, -6.06, -6.01, -5.72, -5.1, -5.1, -4.73, -4.47, -3.84, -3.42, -3.0, -2.32, -1.84, -1.16, -0.55, 0.0, 0.0, 0.0, 0.0, 0.0, 0.61, 1.88, 1.88, 1.9, 2.15, 2.4, 2.23, 1.9, 1.9, 2.4, 2.4, 2.4, 2.15, 2.4, 2.4, 2.4, 2.4, 1.9, 1.9, 2.15, 2.15, 2.15, 2.5, 2.5, 2.5, 2.79, 4.98, 5.58, 4.74, 4.19, 4.43, 4.89, 4.6, 4.4, 2.84, 2.0, 1.99, 1.98, 0.0, -0.96, -1.4, -0.0, 1.08, -4.58, -7.03, -6.98, -6.71, -6.21, -6.02, -5.59, -5.75, -5.75, -5.94, -5.6, -5.6, -5.6, -5.6, -5.6, -9.3, -9.3, -9.3, -8.94, -8.73, -8.73, -8.73, -8.73, -8.15, -8.15, -8.15, -8.15, -7.55, -7.27, -7.27, -6.97, -6.97, -6.97, -6.67, -6.35, -6.35, -6.06, -5.72, -5.72, -5.36, -5.1, -4.46, -4.08, -4.08, -3.42, -2.77, -2.32, -1.67, -1.16, -0.54, -0.55, 0.0, 0.0, 0.0, 0.0, 1.16, 1.88, 1.88, 1.61, 2.15, 2.15, 1.9, 1.9, 1.9, 2.23, 2.23, 1.9, 1.9, 1.9, 1.9, 1.9, 1.9, 1.9, 1.9, 1.9, 1.9, 1.9, 2.15, 2.5, 2.5, 2.5, 2.79, 2.86, 3.72, 3.72, 3.91, 4.89, 4.89, 4.89, 4.43, 2.95, 1.99, 1.84, 1.03, 0.0, 0.0, 1.41, -0.0, -3.55, -6.44, -6.98, -6.71, -6.71, -6.21, -5.59, -5.31, -5.75, -5.94, -5.94, -5.6, -5.6, -5.6, -5.6, -9.3, -9.3, -9.3, -8.73, -8.73, -8.73, -8.73, -8.73, -8.15, -8.15, -8.15, -8.15, -7.55, -7.27, -7.27, -6.97, -6.97, -6.97, -6.35, -6.35, -6.35, -6.06, -5.72, -5.09, -5.36, -4.71, -4.46, -4.05, -3.83, -3.42, -2.96, -2.29, -1.8, -1.16, -1.16, -0.61, -0.55, -0.55, 0.0, 0.0, 1.16, 1.16, 1.16, 1.61, 1.9, 1.61, 1.61, 1.2, 1.9, 1.9, 1.9, 1.9, 1.9, 1.9, 1.9, 1.9, 1.9, 1.9, 1.9, 1.9, 1.61, 2.21, 1.9, 1.9, 2.5, 2.21, 1.88, 1.84, 3.47, 3.47, 3.22, 3.91, 3.91, 3.91, 3.47, 2.8, 2.99, 2.16, 2.16, 2.16, 2.48, 3.2, -0.89, -3.72, -6.21, -7.1, -7.15, -6.71, -6.21, -5.59, -5.09, -5.29, -5.73, -5.94, -5.94, -5.2, -5.2, -5.2, -9.3, -9.3, -9.08, -8.73, -8.73, -8.73, -8.73, -8.73, -8.15, -8.15, -8.15, -8.15, -7.88, -7.27, -7.27, -6.97, -6.97, -6.97, -6.35, -6.35, -6.35, -5.72, -5.72, -5.09, -5.09, -4.71, -4.71, -4.05, -3.83, -3.4, -2.96, -2.29, -2.32, -1.67, -1.16, -1.07, -0.61, -0.55, 0.0, 0.59, 1.13, 1.33, 1.16, 1.2, 1.2, 1.2, 1.4, 1.2, 1.49, 1.58, 1.9, 1.61, 1.88, 1.61, 1.61, 1.61, 1.61, 1.2, 1.2, 1.61, 1.61, 1.88, 1.88, 1.88, 1.88, 1.88, 1.88, 1.84, 2.48, 2.8, 2.8, 2.99, 2.99, 2.8, 3.0, 2.64, 1.98, 2.99, 2.99, 3.91, 4.89, 2.53, -1.05, -3.91, -5.58, -6.45, -5.31, -4.92, -4.92, -4.57, -4.57, -4.57, -5.09, -5.94, -5.94, -5.94, -5.94, -5.94, -9.08, -9.08, -8.73, -8.73, -8.73, -8.73, -8.73, -8.73, -8.49, -8.15, -8.15, -8.15, -7.88, -7.27, -7.27, -6.97, -6.97, -6.97, -6.35, -6.35, -6.35, -5.72, -5.72, -5.09, -5.09, -4.71, -4.71, -4.05, -3.83, -3.4, -2.96, -2.77, -2.32, -1.67, -1.7, -1.16, -1.07, -0.55, 0.0, 0.57, 0.59, 0.59, 1.13, 1.16, 1.2, 1.2, 1.16, 1.4, 1.2, 1.49, 1.49, 1.88, 1.88, 1.88, 1.88, 1.88, 1.88, 1.88, 1.2, 1.2, 1.2, 1.88, 1.88, 1.88, 1.88, 1.88, 1.88, 1.84, 1.8, 1.98, 2.8, 2.99, 2.99, 2.8, 3.0, 2.8, 2.99, 2.76, 3.22, 4.11, 4.74, 4.8, -0.0, -2.99, -4.74, -4.89, -4.15, -3.58, -3.58, -3.39, -2.84, -3.58, -5.09, -6.17, -6.17, -5.73, -5.73, -5.73, -8.78, -8.78, -8.45, -8.73, -8.73, -8.73, -8.73, -8.73, -8.73, -8.15, -8.15, -8.15, -7.88, -7.27, -7.27, -6.97, -6.97, -6.97, -6.35, -6.35, -6.0, -5.72, -5.72, -5.09, -5.1, -4.71, -4.46, -4.05, -3.83, -3.64, -2.96, -2.77, -2.32, -2.16, -1.84, -1.7, -1.07, -0.55, 0.0, 0.0, 0.57, 0.59, 0.59, 1.16, 1.16, 0.61, 0.61, 1.2, 1.2, 1.2, 1.2, 1.4, 1.4, 1.4, 1.88, 1.88, 1.84, 1.84, 1.61, 1.4, 1.2, 1.4, 1.61, 1.61, 1.88, 1.88, 1.88, 1.84, 1.8, 3.22, 3.91, 3.91, 2.8, 2.8, 2.8, 3.91, 4.11, 3.79, 4.29, 4.11, 4.29, 4.89, 3.2, -1.84, -3.91, -3.91, -4.29, -2.97, -2.68, -2.68, -2.21, -2.53, -4.15, -5.7, -5.81, -5.26, -5.26, -5.26, -8.78, -8.78, -8.78, -8.45, -8.73, -8.73, -8.73, -8.73, -8.73, -8.15, -8.15, -8.15, -7.59, -7.27, -7.27, -6.97, -6.97, -6.97, -6.35, -6.35, -6.0, -5.72, -5.72, -5.09, -5.1, -4.71, -4.46, -4.05, -3.83, -3.42, -3.42, -2.77, -2.8, -2.32, -2.36, -1.7, -1.07, -0.55, 0.0, 0.0, 0.0, 0.0, 0.59, 0.61, 0.61, 0.61, 0.61, 0.65, 1.2, 1.4, 1.16, 1.2, 0.61, 1.2, 1.2, 1.88, 1.88, 1.84, 1.84, 1.84, 1.4, 1.16, 1.16, 1.33, 1.84, 1.16, 1.16, 1.33, 1.6, 1.8, 2.44, 2.64, 3.0, 2.8, 3.22, 3.91, 3.63, 3.91, 2.99, 2.99, 2.8, 4.11, 3.2, -0.0, -2.8, -3.91, -4.11, -3.6, -2.97, -2.68, -2.68, -1.9, -2.21, -3.39, -3.58, -3.58, -3.58, -3.58, -8.78, -8.78, -8.78, -8.45, -8.45, -8.45, -8.73, -8.73, -8.73, -8.49, -7.86, -7.86, -7.86, -7.59, -7.27, -6.97, -6.97, -6.67, -6.35, -6.35, -6.0, -5.72, -5.72, -5.09, -5.1, -4.71, -4.46, -4.05, -4.08, -3.42, -3.42, -3.0, -2.8, -2.32, -2.16, -1.7, -1.07, -0.61, 0.0, 0.0, 0.0, 0.0, 0.0, 0.51, 0.51, 0.59, 0.61, 0.53, 0.65, 0.61, 0.61, 0.61, 0.61, 0.61, 1.2, 1.2, 1.4, 1.33, 1.6, 1.6, 1.84, 1.16, 1.33, 1.33, 1.13, 1.33, 1.16, 1.16, 1.13, 1.13, 1.23, 1.72, 3.0, 3.2, 2.99, 2.99, 2.99, 3.47, 2.8, 2.8, 2.8, 3.79, 3.82, -0.0, -1.84, -3.22, -4.43, -4.98, -4.15, -3.47, -3.13, -2.68, -1.58, -1.58, -1.58, -1.58, -1.58, -1.58, -8.78, -8.78, -8.78, -8.78, -8.45, -8.45, -8.45, -8.73, -8.73, -8.49, -7.86, -7.86, -7.86, -7.59, -7.27, -6.97, -6.97, -6.67, -6.35, -6.35, -5.72, -5.72, -5.72, -5.09, -4.71, -4.71, -4.46, -4.05, -4.08, -3.42, -3.42, -2.77, -3.0, -2.32, -1.67, -1.84, -1.16, -0.54, 0.0, 0.0, 0.0, 0.0, 0.0, 0.0, 0.0, 0.0, 0.0, 0.53, 0.65, 0.61, 0.59, 0.61, 0.61, 1.16, 1.16, 1.4, 0.65, 0.61, 1.33, 1.13, 1.13, 1.33, 1.33, 1.13, 1.13, 1.13, 0.59, 0.61, 0.59, 0.59, 0.57, 1.08, 1.19, 1.49, 0.96, 1.05, 1.84, 3.72, 3.72, 2.8, 2.8, 4.11, 3.82, -0.0, -2.16, -2.99, -4.43, -5.37, -4.98, -5.4, -4.77, -4.02, -2.68, -2.24, -2.24, -2.8, -2.8, -2.8, -8.78, -8.78, -8.78, -8.78, -8.45, -8.45, -8.45, -8.73, -8.73, -8.49, -7.86, -7.86, -7.86, -7.59, -7.27, -6.97, -6.97, -6.67, -6.35, -6.35, -5.72, -5.72, -5.72, -5.09, -4.71, -4.71, -4.46, -4.05, -4.08, -3.42, -3.42, -2.77, -3.0, -2.32, -1.67, -1.84, -1.16, -0.54, 0.0, 0.0, 0.0, 0.0, 0.0, 0.0, 0.0, 0.0, 0.0, 0.53, 0.65, 0.61, 0.59, 0.61, 0.61, 1.16, 1.16, 1.4, 0.65, 0.61, 1.33, 1.13, 1.13, 1.33, 1.33, 1.13, 1.13, 1.13, 0.59, 0.61, 0.59, 0.59, 0.57, 1.08, 1.19, 1.49, 0.96, 1.05, 2.8, 3.72, 3.72, 2.8, 2.8, 4.11, 4.47, 0.96, -1.14, -2.99, -4.11, -4.98, -5.37, -5.94, -5.51, -5.26, -4.92, -4.47, -4.47, -4.47, -4.47, -4.47]}]